Time,TemperatureF,DewpointF,PressureIn,WindDirection,WindDirectionDegrees,WindSpeedMPH,WindSpeedGustMPH,Humidity,HourlyPrecipIn,Conditions,Clouds,dailyrainin,SoftwareType,DateUTC
2013-11-01 00:00:00,54.8,52.5,28.56,WNW,285,8.0,16.0,92,0.00,,,0.01,WUHU216DAVISVP2,2013-11-01 04:00:00,
2013-11-01 00:01:00,54.8,52.5,28.56,West,274,5.0,16.0,92,0.00,,,0.01,WUHU216DAVISVP2,2013-11-01 04:01:00,
2013-11-01 00:06:00,54.6,52.3,28.56,WNW,286,16.0,20.0,92,0.00,,,0.01,WUHU216DAVISVP2,2013-11-01 04:06:00,
2013-11-01 00:11:00,54.2,51.6,28.55,WNW,296,15.0,22.0,91,0.00,,,0.00,WUHU216DAVISVP2,2013-11-01 04:11:00,
2013-11-01 00:16:00,53.9,51.3,28.54,NW,320,10.0,22.0,91,0.00,,,0.00,WUHU216DAVISVP2,2013-11-01 04:16:00,
2013-11-01 00:17:00,53.8,51.2,28.54,WNW,296,16.0,22.0,91,0.00,,,0.00,WUHU216DAVISVP2,2013-11-01 04:17:00,
2013-11-01 00:21:00,53.6,51.0,28.54,WNW,285,11.0,22.0,91,0.00,,,0.00,WUHU216DAVISVP2,2013-11-01 04:21:00,
2013-11-01 00:22:00,53.6,51.0,28.54,WNW,282,5.0,22.0,91,0.00,,,0.00,WUHU216DAVISVP2,2013-11-01 04:22:00,
2013-11-01 00:26:00,53.4,51.1,28.55,WNW,295,11.0,22.0,92,0.00,,,0.00,WUHU216DAVISVP2,2013-11-01 04:26:00,
2013-11-01 00:27:00,53.4,51.1,28.55,West,278,20.0,22.0,92,0.00,,,0.00,WUHU216DAVISVP2,2013-11-01 04:27:00,
2013-11-01 00:31:00,53.4,51.1,28.54,WNW,293,8.0,20.0,92,0.00,,,0.00,WUHU216DAVISVP2,2013-11-01 04:31:00,
2013-11-01 00:32:00,53.3,51.0,28.54,WSW,253,13.0,20.0,92,0.00,,,0.00,WUHU216DAVISVP2,2013-11-01 04:32:00,
2013-11-01 00:33:00,53.3,51.0,28.54,West,268,15.0,20.0,92,0.00,,,0.00,WUHU216DAVISVP2,2013-11-01 04:33:00,
2013-11-01 00:36:00,53.2,50.9,28.54,West,269,9.0,20.0,92,0.00,,,0.00,WUHU216DAVISVP2,2013-11-01 04:36:00,
2013-11-01 00:37:00,53.2,50.9,28.54,WNW,294,11.0,21.0,92,0.00,,,0.00,WUHU216DAVISVP2,2013-11-01 04:37:00,
2013-11-01 00:38:00,53.2,50.9,28.55,West,264,12.0,21.0,92,0.00,,,0.00,WUHU216DAVISVP2,2013-11-01 04:38:00,
2013-11-01 00:41:00,53.1,50.8,28.55,NW,313,9.0,21.0,92,0.00,,,0.00,WUHU216DAVISVP2,2013-11-01 04:41:00,
2013-11-01 00:42:00,53.1,50.8,28.55,WNW,284,10.0,21.0,92,0.00,,,0.00,WUHU216DAVISVP2,2013-11-01 04:42:00,
2013-11-01 00:43:00,53.0,50.7,28.55,West,268,8.0,21.0,92,0.00,,,0.00,WUHU216DAVISVP2,2013-11-01 04:43:00,
2013-11-01 00:46:00,52.9,50.6,28.56,WNW,283,8.0,21.0,92,0.00,,,0.00,WUHU216DAVISVP2,2013-11-01 04:46:00,
2013-11-01 00:47:00,53.0,50.7,28.56,West,263,8.0,21.0,92,0.00,,,0.00,WUHU216DAVISVP2,2013-11-01 04:47:00,
2013-11-01 00:48:00,52.9,50.6,28.56,West,271,19.0,21.0,92,0.00,,,0.00,WUHU216DAVISVP2,2013-11-01 04:48:00,
2013-11-01 00:49:00,52.9,50.6,28.56,WNW,295,12.0,21.0,92,0.00,,,0.00,WUHU216DAVISVP2,2013-11-01 04:49:00,
2013-11-01 00:52:00,52.8,50.2,28.55,WNW,287,11.0,21.0,91,0.00,,,0.00,WUHU216DAVISVP2,2013-11-01 04:52:00,
2013-11-01 00:53:00,52.8,50.2,28.55,WNW,297,18.0,21.0,91,0.00,,,0.00,WUHU216DAVISVP2,2013-11-01 04:53:00,
2013-11-01 00:54:00,52.8,50.2,28.55,WNW,285,16.0,21.0,91,0.00,,,0.00,WUHU216DAVISVP2,2013-11-01 04:54:00,
2013-11-01 00:57:00,52.7,50.1,28.55,West,268,12.0,21.0,91,0.00,,,0.00,WUHU216DAVISVP2,2013-11-01 04:57:00,
2013-11-01 00:58:00,52.6,50.0,28.55,West,280,11.0,21.0,91,0.00,,,0.00,WUHU216DAVISVP2,2013-11-01 04:58:00,
2013-11-01 00:59:00,52.6,50.0,28.55,West,274,7.0,21.0,91,0.00,,,0.00,WUHU216DAVISVP2,2013-11-01 04:59:00,
2013-11-01 01:02:00,52.5,49.9,28.57,West,266,7.0,21.0,91,0.00,,,0.00,WUHU216DAVISVP2,2013-11-01 05:02:00,
2013-11-01 01:03:00,52.5,49.9,28.57,West,276,10.0,21.0,91,0.00,,,0.00,WUHU216DAVISVP2,2013-11-01 05:03:00,
2013-11-01 01:04:00,52.5,49.9,28.57,WNW,302,18.0,21.0,91,0.00,,,0.00,WUHU216DAVISVP2,2013-11-01 05:04:00,
2013-11-01 01:07:00,52.4,49.8,28.58,West,273,10.0,26.0,91,0.00,,,0.00,WUHU216DAVISVP2,2013-11-01 05:07:00,
2013-11-01 01:08:00,52.4,49.8,28.58,WNW,291,13.0,26.0,91,0.00,,,0.00,WUHU216DAVISVP2,2013-11-01 05:08:00,
2013-11-01 01:09:00,52.3,49.7,28.57,WNW,297,14.0,26.0,91,0.00,,,0.00,WUHU216DAVISVP2,2013-11-01 05:09:00,
2013-11-01 01:12:00,52.3,49.7,28.57,WNW,285,19.0,26.0,91,0.00,,,0.00,WUHU216DAVISVP2,2013-11-01 05:12:00,
2013-11-01 01:13:00,52.2,49.6,28.57,West,271,12.0,26.0,91,0.00,,,0.00,WUHU216DAVISVP2,2013-11-01 05:13:00,
2013-11-01 01:14:00,52.2,49.6,28.57,WNW,283,13.0,26.0,91,0.00,,,0.00,WUHU216DAVISVP2,2013-11-01 05:14:00,
2013-11-01 01:18:00,52.0,49.4,28.57,West,275,12.0,26.0,91,0.00,,,0.00,WUHU216DAVISVP2,2013-11-01 05:18:00,
2013-11-01 01:19:00,51.9,49.3,28.57,West,280,12.0,26.0,91,0.00,,,0.00,WUHU216DAVISVP2,2013-11-01 05:19:00,
2013-11-01 01:20:00,51.9,49.3,28.57,West,276,13.0,26.0,91,0.00,,,0.00,WUHU216DAVISVP2,2013-11-01 05:20:00,
2013-11-01 01:23:00,51.8,49.2,28.57,WNW,303,12.0,26.0,91,0.00,,,0.00,WUHU216DAVISVP2,2013-11-01 05:23:00,
2013-11-01 01:24:00,51.7,49.1,28.57,WNW,282,11.0,25.0,91,0.00,,,0.00,WUHU216DAVISVP2,2013-11-01 05:24:00,
2013-11-01 01:25:00,51.7,49.1,28.57,WSW,258,23.0,25.0,91,0.00,,,0.00,WUHU216DAVISVP2,2013-11-01 05:25:00,
2013-11-01 01:28:00,51.6,49.0,28.58,WNW,300,15.0,25.0,91,0.00,,,0.00,WUHU216DAVISVP2,2013-11-01 05:28:00,
2013-11-01 01:29:00,51.6,49.0,28.58,WNW,299,13.0,25.0,91,0.00,,,0.00,WUHU216DAVISVP2,2013-11-01 05:29:00,
2013-11-01 01:30:00,51.5,48.9,28.58,WSW,256,16.0,24.0,91,0.00,,,0.00,WUHU216DAVISVP2,2013-11-01 05:30:00,
2013-11-01 01:33:00,51.6,48.7,28.58,NW,308,13.0,25.0,90,0.00,,,0.00,WUHU216DAVISVP2,2013-11-01 05:33:00,
2013-11-01 01:34:00,51.5,48.6,28.58,WNW,286,15.0,25.0,90,0.00,,,0.00,WUHU216DAVISVP2,2013-11-01 05:34:00,
2013-11-01 01:35:00,51.5,48.6,28.58,WNW,285,11.0,25.0,90,0.00,,,0.00,WUHU216DAVISVP2,2013-11-01 05:35:00,
2013-11-01 01:36:00,51.5,48.6,28.58,WNW,299,16.0,25.0,90,0.00,,,0.00,WUHU216DAVISVP2,2013-11-01 05:36:00,
2013-11-01 01:39:00,51.5,48.6,28.58,WNW,283,10.0,25.0,90,0.00,,,0.00,WUHU216DAVISVP2,2013-11-01 05:39:00,
2013-11-01 01:40:00,51.5,48.6,28.58,WNW,283,16.0,25.0,90,0.00,,,0.00,WUHU216DAVISVP2,2013-11-01 05:40:00,
2013-11-01 01:41:00,51.4,48.5,28.59,NW,306,15.0,25.0,90,0.00,,,0.00,WUHU216DAVISVP2,2013-11-01 05:41:00,
2013-11-01 01:44:00,51.4,48.5,28.59,WNW,287,12.0,27.0,90,0.00,,,0.00,WUHU216DAVISVP2,2013-11-01 05:44:00,
2013-11-01 01:45:00,51.4,48.5,28.59,WNW,285,22.0,27.0,90,0.00,,,0.00,WUHU216DAVISVP2,2013-11-01 05:45:00,
2013-11-01 01:46:00,51.3,48.1,28.59,West,269,13.0,27.0,89,0.00,,,0.00,WUHU216DAVISVP2,2013-11-01 05:46:00,
2013-11-01 01:49:00,51.3,48.1,28.60,WNW,285,18.0,27.0,89,0.00,,,0.00,WUHU216DAVISVP2,2013-11-01 05:49:00,
2013-11-01 01:50:00,51.2,48.0,28.60,West,271,16.0,27.0,89,0.00,,,0.00,WUHU216DAVISVP2,2013-11-01 05:50:00,
2013-11-01 01:51:00,51.2,48.0,28.60,NW,305,7.0,27.0,89,0.00,,,0.00,WUHU216DAVISVP2,2013-11-01 05:51:00,
2013-11-01 01:52:00,51.2,48.0,28.60,WNW,296,7.0,27.0,89,0.00,,,0.00,WUHU216DAVISVP2,2013-11-01 05:52:00,
2013-11-01 01:54:00,51.1,47.9,28.60,West,260,4.0,27.0,89,0.00,,,0.00,WUHU216DAVISVP2,2013-11-01 05:54:00,
2013-11-01 01:56:00,51.1,47.9,28.60,WNW,287,10.0,27.0,89,0.00,,,0.00,WUHU216DAVISVP2,2013-11-01 05:56:00,
2013-11-01 01:58:00,51.0,47.8,28.60,WNW,303,10.0,27.0,89,0.00,,,0.00,WUHU216DAVISVP2,2013-11-01 05:58:00,
2013-11-01 02:00:00,51.0,47.8,28.60,West,260,23.0,27.0,89,0.00,,,0.00,WUHU216DAVISVP2,2013-11-01 06:00:00,
2013-11-01 02:01:00,51.0,47.8,28.60,West,265,10.0,26.0,89,0.00,,,0.00,WUHU216DAVISVP2,2013-11-01 06:01:00,
2013-11-01 02:03:00,50.9,47.7,28.60,WNW,289,16.0,26.0,89,0.00,,,0.00,WUHU216DAVISVP2,2013-11-01 06:03:00,
2013-11-01 02:05:00,50.9,47.7,28.61,West,260,12.0,26.0,89,0.00,,,0.00,WUHU216DAVISVP2,2013-11-01 06:05:00,
2013-11-01 02:06:00,50.8,47.6,28.61,WNW,288,10.0,26.0,89,0.00,,,0.00,WUHU216DAVISVP2,2013-11-01 06:06:00,
2013-11-01 02:07:00,50.8,47.6,28.61,West,274,15.0,26.0,89,0.00,,,0.00,WUHU216DAVISVP2,2013-11-01 06:07:00,
2013-11-01 02:08:00,50.8,47.6,28.61,WNW,300,11.0,26.0,89,0.00,,,0.00,WUHU216DAVISVP2,2013-11-01 06:08:00,
2013-11-01 02:10:00,50.6,47.4,28.61,West,264,12.0,26.0,89,0.00,,,0.00,WUHU216DAVISVP2,2013-11-01 06:10:00,
2013-11-01 02:11:00,50.6,47.4,28.61,West,263,18.0,28.0,89,0.00,,,0.00,WUHU216DAVISVP2,2013-11-01 06:11:00,
2013-11-01 02:12:00,50.6,47.4,28.61,WNW,291,23.0,28.0,89,0.00,,,0.00,WUHU216DAVISVP2,2013-11-01 06:12:00,
2013-11-01 02:13:00,50.5,47.3,28.61,WNW,294,19.0,28.0,89,0.00,,,0.00,WUHU216DAVISVP2,2013-11-01 06:13:00,
2013-11-01 02:15:00,50.4,47.2,28.61,West,279,20.0,28.0,89,0.00,,,0.00,WUHU216DAVISVP2,2013-11-01 06:15:00,
2013-11-01 02:16:00,50.3,46.9,28.62,West,278,14.0,28.0,88,0.00,,,0.00,WUHU216DAVISVP2,2013-11-01 06:16:00,
2013-11-01 02:17:00,50.3,46.9,28.62,West,270,14.0,28.0,88,0.00,,,0.00,WUHU216DAVISVP2,2013-11-01 06:17:00,
2013-11-01 02:18:00,50.3,46.9,28.62,West,260,10.0,28.0,88,0.00,,,0.00,WUHU216DAVISVP2,2013-11-01 06:18:00,
2013-11-01 02:20:00,50.2,46.8,28.62,WNW,303,8.0,30.0,88,0.00,,,0.00,WUHU216DAVISVP2,2013-11-01 06:20:00,
2013-11-01 02:22:00,50.2,46.8,28.62,WNW,292,14.0,30.0,88,0.00,,,0.00,WUHU216DAVISVP2,2013-11-01 06:22:00,
2013-11-01 02:23:00,50.1,46.7,28.62,West,278,20.0,30.0,88,0.00,,,0.00,WUHU216DAVISVP2,2013-11-01 06:23:00,
2013-11-01 02:25:00,50.1,46.7,28.62,WNW,290,13.0,30.0,88,0.00,,,0.00,WUHU216DAVISVP2,2013-11-01 06:25:00,
2013-11-01 02:27:00,50.1,46.7,28.62,NW,308,15.0,30.0,88,0.00,,,0.00,WUHU216DAVISVP2,2013-11-01 06:27:00,
2013-11-01 02:28:00,50.1,46.7,28.63,NW,307,24.0,30.0,88,0.00,,,0.00,WUHU216DAVISVP2,2013-11-01 06:28:00,
2013-11-01 02:29:00,50.1,46.7,28.63,West,272,25.0,30.0,88,0.00,,,0.00,WUHU216DAVISVP2,2013-11-01 06:29:00,
2013-11-01 02:30:00,50.1,46.4,28.63,West,280,25.0,32.0,87,0.00,,,0.00,WUHU216DAVISVP2,2013-11-01 06:30:00,
2013-11-01 02:32:00,50.1,46.4,28.63,NW,304,14.0,32.0,87,0.00,,,0.00,WUHU216DAVISVP2,2013-11-01 06:32:00,
2013-11-01 02:33:00,50.1,46.4,28.63,WNW,287,16.0,32.0,87,0.00,,,0.00,WUHU216DAVISVP2,2013-11-01 06:33:00,
2013-11-01 02:34:00,50.1,46.4,28.63,West,274,25.0,32.0,87,0.00,,,0.00,WUHU216DAVISVP2,2013-11-01 06:34:00,
2013-11-01 02:35:00,50.0,46.3,28.63,WNW,286,11.0,34.0,87,0.00,,,0.00,WUHU216DAVISVP2,2013-11-01 06:35:00,
2013-11-01 02:37:00,50.0,46.3,28.63,WNW,292,20.0,34.0,87,0.00,,,0.00,WUHU216DAVISVP2,2013-11-01 06:37:00,
2013-11-01 02:38:00,50.0,46.3,28.64,WNW,287,12.0,34.0,87,0.00,,,0.00,WUHU216DAVISVP2,2013-11-01 06:38:00,
2013-11-01 02:39:00,50.0,46.3,28.64,WNW,294,21.0,34.0,87,0.00,,,0.00,WUHU216DAVISVP2,2013-11-01 06:39:00,
2013-11-01 02:41:00,50.0,46.6,28.64,WNW,284,16.0,34.0,88,0.00,,,0.00,WUHU216DAVISVP2,2013-11-01 06:41:00,
2013-11-01 02:42:00,50.0,46.6,28.64,WNW,291,16.0,34.0,88,0.00,,,0.00,WUHU216DAVISVP2,2013-11-01 06:42:00,
2013-11-01 02:43:00,49.9,46.5,28.64,West,264,18.0,34.0,88,0.00,,,0.00,WUHU216DAVISVP2,2013-11-01 06:43:00,
2013-11-01 02:44:00,49.9,46.2,28.64,West,278,18.0,34.0,87,0.00,,,0.00,WUHU216DAVISVP2,2013-11-01 06:44:00,
2013-11-01 02:45:00,49.9,46.2,28.64,WNW,302,18.0,34.0,87,0.00,,,0.00,WUHU216DAVISVP2,2013-11-01 06:45:00,
2013-11-01 02:46:00,49.9,46.2,28.64,West,274,20.0,34.0,87,0.00,,,0.00,WUHU216DAVISVP2,2013-11-01 06:46:00,
2013-11-01 02:47:00,49.9,46.2,28.64,West,277,13.0,34.0,87,0.00,,,0.00,WUHU216DAVISVP2,2013-11-01 06:47:00,
2013-11-01 02:48:00,49.9,46.2,28.64,WNW,283,11.0,34.0,87,0.00,,,0.00,WUHU216DAVISVP2,2013-11-01 06:48:00,
2013-11-01 02:50:00,49.8,46.1,28.64,West,266,13.0,34.0,87,0.00,,,0.00,WUHU216DAVISVP2,2013-11-01 06:50:00,
2013-11-01 02:51:00,49.8,45.8,28.64,West,262,13.0,34.0,86,0.00,,,0.00,WUHU216DAVISVP2,2013-11-01 06:51:00,
2013-11-01 02:52:00,49.7,45.7,28.64,NW,304,20.0,34.0,86,0.00,,,0.00,WUHU216DAVISVP2,2013-11-01 06:52:00,
2013-11-01 02:54:00,49.7,45.7,28.64,West,268,22.0,33.0,86,0.00,,,0.00,WUHU216DAVISVP2,2013-11-01 06:54:00,
2013-11-01 02:55:00,49.7,45.7,28.64,West,266,15.0,33.0,86,0.00,,,0.00,WUHU216DAVISVP2,2013-11-01 06:55:00,
2013-11-01 02:56:00,49.7,45.7,28.64,West,275,19.0,33.0,86,0.00,,,0.00,WUHU216DAVISVP2,2013-11-01 06:56:00,
2013-11-01 02:57:00,49.7,45.7,28.64,West,277,16.0,33.0,86,0.00,,,0.00,WUHU216DAVISVP2,2013-11-01 06:57:00,
2013-11-01 02:58:00,49.6,45.6,28.64,West,272,9.0,33.0,86,0.00,,,0.00,WUHU216DAVISVP2,2013-11-01 06:58:00,
2013-11-01 02:59:00,49.6,45.6,28.64,West,273,8.0,33.0,86,0.00,,,0.00,WUHU216DAVISVP2,2013-11-01 06:59:00,
2013-11-01 03:00:00,49.6,45.9,28.64,West,280,15.0,33.0,87,0.00,,,0.00,WUHU216DAVISVP2,2013-11-01 07:00:00,
2013-11-01 03:02:00,49.6,45.6,28.64,West,270,14.0,33.0,86,0.00,,,0.00,WUHU216DAVISVP2,2013-11-01 07:02:00,
2013-11-01 03:03:00,49.6,45.6,28.64,WNW,300,7.0,27.0,86,0.00,,,0.00,WUHU216DAVISVP2,2013-11-01 07:03:00,
2013-11-01 03:04:00,49.5,45.8,28.64,West,271,15.0,26.0,87,0.00,,,0.00,WUHU216DAVISVP2,2013-11-01 07:04:00,
2013-11-01 03:05:00,49.5,45.8,28.64,WSW,256,16.0,26.0,87,0.00,,,0.00,WUHU216DAVISVP2,2013-11-01 07:05:00,
2013-11-01 03:07:00,49.5,45.8,28.64,West,278,8.0,26.0,87,0.00,,,0.00,WUHU216DAVISVP2,2013-11-01 07:07:00,
2013-11-01 03:08:00,49.5,45.8,28.64,West,279,22.0,26.0,87,0.00,,,0.00,WUHU216DAVISVP2,2013-11-01 07:08:00,
2013-11-01 03:10:00,49.5,45.8,28.64,WNW,283,12.0,26.0,87,0.00,,,0.00,WUHU216DAVISVP2,2013-11-01 07:10:00,
2013-11-01 03:11:00,49.5,45.8,28.64,West,272,19.0,26.0,87,0.00,,,0.00,WUHU216DAVISVP2,2013-11-01 07:11:00,
2013-11-01 03:12:00,49.5,45.8,28.64,West,278,13.0,26.0,87,0.00,,,0.00,WUHU216DAVISVP2,2013-11-01 07:12:00,
2013-11-01 03:13:00,49.5,45.8,28.64,WNW,285,13.0,26.0,87,0.00,,,0.00,WUHU216DAVISVP2,2013-11-01 07:13:00,
2013-11-01 03:15:00,49.5,45.8,28.64,West,277,11.0,26.0,87,0.00,,,0.00,WUHU216DAVISVP2,2013-11-01 07:15:00,
2013-11-01 03:16:00,49.5,45.8,28.64,WNW,290,11.0,26.0,87,0.00,,,0.00,WUHU216DAVISVP2,2013-11-01 07:16:00,
2013-11-01 03:17:00,49.4,45.7,28.64,West,272,22.0,22.0,87,0.00,,,0.00,WUHU216DAVISVP2,2013-11-01 07:17:00,
2013-11-01 03:18:00,49.4,45.7,28.64,WNW,282,13.0,24.0,87,0.00,,,0.00,WUHU216DAVISVP2,2013-11-01 07:18:00,
2013-11-01 03:19:00,49.4,45.7,28.64,West,278,22.0,24.0,87,0.00,,,0.00,WUHU216DAVISVP2,2013-11-01 07:19:00,
2013-11-01 03:21:00,49.4,45.4,28.65,WSW,256,15.0,27.0,86,0.00,,,0.00,WUHU216DAVISVP2,2013-11-01 07:21:00,
2013-11-01 03:22:00,49.4,45.4,28.65,West,272,10.0,27.0,86,0.00,,,0.00,WUHU216DAVISVP2,2013-11-01 07:22:00,
2013-11-01 03:23:00,49.4,45.4,28.65,WNW,287,15.0,27.0,86,0.00,,,0.00,WUHU216DAVISVP2,2013-11-01 07:23:00,
2013-11-01 03:24:00,49.4,45.4,28.65,West,270,13.0,27.0,86,0.00,,,0.00,WUHU216DAVISVP2,2013-11-01 07:24:00,
2013-11-01 03:26:00,49.4,45.4,28.65,WNW,291,15.0,27.0,86,0.00,,,0.00,WUHU216DAVISVP2,2013-11-01 07:26:00,
2013-11-01 03:27:00,49.3,45.3,28.65,WNW,283,19.0,27.0,86,0.00,,,0.00,WUHU216DAVISVP2,2013-11-01 07:27:00,
2013-11-01 03:28:00,49.3,45.3,28.65,West,264,11.0,27.0,86,0.00,,,0.00,WUHU216DAVISVP2,2013-11-01 07:28:00,
2013-11-01 03:29:00,49.3,45.3,28.65,WNW,285,14.0,27.0,86,0.00,,,0.00,WUHU216DAVISVP2,2013-11-01 07:29:00,
2013-11-01 03:31:00,49.2,45.2,28.65,West,271,18.0,27.0,86,0.00,,,0.00,WUHU216DAVISVP2,2013-11-01 07:31:00,
2013-11-01 03:32:00,49.2,45.2,28.65,WSW,251,12.0,27.0,86,0.00,,,0.00,WUHU216DAVISVP2,2013-11-01 07:32:00,
2013-11-01 03:34:00,49.1,45.1,28.66,West,281,12.0,27.0,86,0.00,,,0.00,WUHU216DAVISVP2,2013-11-01 07:34:00,
2013-11-01 03:37:00,49.0,45.0,28.67,NW,309,26.0,27.0,86,0.00,,,0.00,WUHU216DAVISVP2,2013-11-01 07:37:00,
2013-11-01 03:39:00,48.9,44.9,28.66,WNW,289,20.0,27.0,86,0.00,,,0.00,WUHU216DAVISVP2,2013-11-01 07:39:00,
2013-11-01 03:42:00,48.6,44.3,28.66,West,268,14.0,28.0,85,0.00,,,0.00,WUHU216DAVISVP2,2013-11-01 07:42:00,
2013-11-01 03:43:00,48.6,44.3,28.66,WNW,297,14.0,28.0,85,0.00,,,0.00,WUHU216DAVISVP2,2013-11-01 07:43:00,
2013-11-01 03:44:00,48.5,44.2,28.66,WNW,283,16.0,28.0,85,0.00,,,0.00,WUHU216DAVISVP2,2013-11-01 07:44:00,
2013-11-01 03:48:00,48.3,44.0,28.66,WNW,296,19.0,28.0,85,0.00,,,0.00,WUHU216DAVISVP2,2013-11-01 07:48:00,
2013-11-01 03:49:00,48.2,43.9,28.66,WNW,288,13.0,28.0,85,0.00,,,0.00,WUHU216DAVISVP2,2013-11-01 07:49:00,
2013-11-01 03:50:00,48.2,43.6,28.66,WNW,300,20.0,28.0,84,0.00,,,0.00,WUHU216DAVISVP2,2013-11-01 07:50:00,
2013-11-01 03:53:00,48.1,43.5,28.67,NW,318,16.0,29.0,84,0.00,,,0.00,WUHU216DAVISVP2,2013-11-01 07:53:00,
2013-11-01 03:54:00,48.0,43.4,28.67,WNW,282,28.0,32.0,84,0.00,,,0.00,WUHU216DAVISVP2,2013-11-01 07:54:00,
2013-11-01 03:55:00,48.0,43.4,28.67,WNW,284,16.0,32.0,84,0.00,,,0.00,WUHU216DAVISVP2,2013-11-01 07:55:00,
2013-11-01 03:58:00,47.9,43.3,28.67,WNW,287,16.0,32.0,84,0.00,,,0.00,WUHU216DAVISVP2,2013-11-01 07:58:00,
2013-11-01 03:59:00,47.9,43.3,28.67,WNW,303,14.0,32.0,84,0.00,,,0.00,WUHU216DAVISVP2,2013-11-01 07:59:00,
2013-11-01 04:00:00,47.9,43.3,28.67,West,270,24.0,32.0,84,0.00,,,0.00,WUHU216DAVISVP2,2013-11-01 08:00:00,
2013-11-01 04:02:00,47.9,43.3,28.67,WNW,293,11.0,32.0,84,0.00,,,0.00,WUHU216DAVISVP2,2013-11-01 08:02:00,
2013-11-01 04:03:00,47.9,43.3,28.67,West,270,16.0,32.0,84,0.00,,,0.00,WUHU216DAVISVP2,2013-11-01 08:03:00,
2013-11-01 04:04:00,47.8,43.2,28.67,North,359,21.0,32.0,84,0.00,,,0.00,WUHU216DAVISVP2,2013-11-01 08:04:00,
2013-11-01 04:05:00,47.8,43.2,28.67,WNW,289,20.0,32.0,84,0.00,,,0.00,WUHU216DAVISVP2,2013-11-01 08:05:00,
2013-11-01 04:07:00,47.7,43.1,28.67,WNW,285,14.0,32.0,84,0.00,,,0.00,WUHU216DAVISVP2,2013-11-01 08:07:00,
2013-11-01 04:09:00,47.7,43.1,28.67,WNW,292,21.0,32.0,84,0.00,,,0.00,WUHU216DAVISVP2,2013-11-01 08:09:00,
2013-11-01 04:10:00,47.7,43.1,28.67,WNW,289,12.0,32.0,84,0.00,,,0.00,WUHU216DAVISVP2,2013-11-01 08:10:00,
2013-11-01 04:11:00,47.7,43.4,28.67,West,278,12.0,32.0,85,0.00,,,0.00,WUHU216DAVISVP2,2013-11-01 08:11:00,
2013-11-01 04:13:00,47.6,43.0,28.67,WNW,287,20.0,31.0,84,0.00,,,0.00,WUHU216DAVISVP2,2013-11-01 08:13:00,
2013-11-01 04:14:00,47.6,43.0,28.68,WNW,295,15.0,31.0,84,0.00,,,0.00,WUHU216DAVISVP2,2013-11-01 08:14:00,
2013-11-01 04:15:00,47.6,43.3,28.68,West,262,13.0,31.0,85,0.00,,,0.00,WUHU216DAVISVP2,2013-11-01 08:15:00,
2013-11-01 04:16:00,47.6,43.3,28.68,West,279,22.0,31.0,85,0.00,,,0.00,WUHU216DAVISVP2,2013-11-01 08:16:00,
2013-11-01 04:18:00,47.5,43.2,28.68,West,271,12.0,31.0,85,0.00,,,0.00,WUHU216DAVISVP2,2013-11-01 08:18:00,
2013-11-01 04:19:00,47.5,43.2,28.68,WSW,256,16.0,31.0,85,0.00,,,0.00,WUHU216DAVISVP2,2013-11-01 08:19:00,
2013-11-01 04:20:00,47.5,43.2,28.68,WSW,237,13.0,31.0,85,0.00,,,0.00,WUHU216DAVISVP2,2013-11-01 08:20:00,
2013-11-01 04:21:00,47.4,43.1,28.68,WNW,293,14.0,31.0,85,0.00,,,0.00,WUHU216DAVISVP2,2013-11-01 08:21:00,
2013-11-01 04:23:00,47.4,43.1,28.68,West,281,14.0,31.0,85,0.00,,,0.00,WUHU216DAVISVP2,2013-11-01 08:23:00,
2013-11-01 04:24:00,47.4,43.1,28.69,West,279,12.0,31.0,85,0.00,,,0.00,WUHU216DAVISVP2,2013-11-01 08:24:00,
2013-11-01 04:25:00,47.4,43.1,28.68,WNW,289,20.0,31.0,85,0.00,,,0.00,WUHU216DAVISVP2,2013-11-01 08:25:00,
2013-11-01 04:26:00,47.4,43.1,28.69,WNW,287,22.0,31.0,85,0.00,,,0.00,WUHU216DAVISVP2,2013-11-01 08:26:00,
2013-11-01 04:28:00,47.4,43.1,28.69,WNW,296,13.0,31.0,85,0.00,,,0.00,WUHU216DAVISVP2,2013-11-01 08:28:00,
2013-11-01 04:29:00,47.4,43.1,28.69,WNW,303,14.0,31.0,85,0.00,,,0.00,WUHU216DAVISVP2,2013-11-01 08:29:00,
2013-11-01 04:31:00,47.3,43.0,28.69,West,268,13.0,31.0,85,0.00,,,0.00,WUHU216DAVISVP2,2013-11-01 08:31:00,
2013-11-01 04:32:00,47.3,43.0,28.69,WNW,287,15.0,28.0,85,0.00,,,0.00,WUHU216DAVISVP2,2013-11-01 08:32:00,
2013-11-01 04:33:00,47.2,42.9,28.69,West,275,24.0,28.0,85,0.00,,,0.00,WUHU216DAVISVP2,2013-11-01 08:33:00,
2013-11-01 04:34:00,47.2,42.9,28.69,WNW,292,19.0,28.0,85,0.00,,,0.00,WUHU216DAVISVP2,2013-11-01 08:34:00,
2013-11-01 04:36:00,47.2,43.2,28.69,WNW,287,11.0,28.0,86,0.00,,,0.00,WUHU216DAVISVP2,2013-11-01 08:36:00,
2013-11-01 04:37:00,47.1,42.8,28.69,West,276,18.0,28.0,85,0.00,,,0.00,WUHU216DAVISVP2,2013-11-01 08:37:00,
2013-11-01 04:39:00,47.1,43.1,28.69,WNW,299,16.0,28.0,86,0.00,,,0.00,WUHU216DAVISVP2,2013-11-01 08:39:00,
2013-11-01 04:41:00,47.1,42.8,28.69,West,266,15.0,26.0,85,0.00,,,0.00,WUHU216DAVISVP2,2013-11-01 08:41:00,
2013-11-01 04:42:00,47.1,42.8,28.69,WNW,296,14.0,26.0,85,0.00,,,0.00,WUHU216DAVISVP2,2013-11-01 08:42:00,
2013-11-01 04:44:00,47.0,42.7,28.69,West,277,8.0,26.0,85,0.00,,,0.00,WUHU216DAVISVP2,2013-11-01 08:44:00,
2013-11-01 04:46:00,47.0,42.7,28.69,WNW,282,9.0,26.0,85,0.00,,,0.00,WUHU216DAVISVP2,2013-11-01 08:46:00,
2013-11-01 04:47:00,47.0,42.7,28.69,WNW,282,12.0,26.0,85,0.00,,,0.00,WUHU216DAVISVP2,2013-11-01 08:47:00,
2013-11-01 04:49:00,46.9,42.6,28.69,West,265,11.0,25.0,85,0.00,,,0.00,WUHU216DAVISVP2,2013-11-01 08:49:00,
2013-11-01 04:52:00,46.9,42.6,28.69,West,273,15.0,25.0,85,0.00,,,0.00,WUHU216DAVISVP2,2013-11-01 08:52:00,
2013-11-01 04:53:00,46.8,42.5,28.69,WSW,256,13.0,25.0,85,0.00,,,0.00,WUHU216DAVISVP2,2013-11-01 08:53:00,
2013-11-01 04:54:00,46.8,42.5,28.69,West,266,12.0,25.0,85,0.00,,,0.00,WUHU216DAVISVP2,2013-11-01 08:54:00,
2013-11-01 04:55:00,46.8,42.5,28.69,WSW,258,12.0,25.0,85,0.00,,,0.00,WUHU216DAVISVP2,2013-11-01 08:55:00,
2013-11-01 04:57:00,46.7,42.4,28.69,West,274,13.0,23.0,85,0.00,,,0.00,WUHU216DAVISVP2,2013-11-01 08:57:00,
2013-11-01 04:58:00,46.7,42.4,28.69,West,268,10.0,23.0,85,0.00,,,0.00,WUHU216DAVISVP2,2013-11-01 08:58:00,
2013-11-01 04:59:00,46.7,42.4,28.69,West,274,8.0,23.0,85,0.00,,,0.00,WUHU216DAVISVP2,2013-11-01 08:59:00,
2013-11-01 05:00:00,46.7,42.4,28.70,West,262,20.0,23.0,85,0.00,,,0.00,WUHU216DAVISVP2,2013-11-01 09:00:00,
2013-11-01 05:02:00,46.6,42.6,28.69,WNW,290,18.0,23.0,86,0.00,,,0.00,WUHU216DAVISVP2,2013-11-01 09:02:00,
2013-11-01 05:03:00,46.5,42.5,28.69,West,277,18.0,23.0,86,0.00,,,0.00,WUHU216DAVISVP2,2013-11-01 09:03:00,
2013-11-01 05:05:00,46.5,42.5,28.69,West,273,10.0,23.0,86,0.00,,,0.00,WUHU216DAVISVP2,2013-11-01 09:05:00,
2013-11-01 05:08:00,46.4,42.4,28.70,WNW,284,4.0,23.0,86,0.00,,,0.00,WUHU216DAVISVP2,2013-11-01 09:08:00,
2013-11-01 05:09:00,46.3,42.3,28.70,West,268,7.0,23.0,86,0.00,,,0.00,WUHU216DAVISVP2,2013-11-01 09:09:00,
2013-11-01 05:10:00,46.3,42.3,28.70,SW,234,9.0,23.0,86,0.00,,,0.00,WUHU216DAVISVP2,2013-11-01 09:10:00,
2013-11-01 05:13:00,46.1,42.1,28.70,WSW,253,14.0,23.0,86,0.00,,,0.00,WUHU216DAVISVP2,2013-11-01 09:13:00,
2013-11-01 05:14:00,46.1,42.1,28.70,West,264,4.0,23.0,86,0.00,,,0.00,WUHU216DAVISVP2,2013-11-01 09:14:00,
2013-11-01 05:15:00,46.1,42.1,28.70,West,266,6.0,23.0,86,0.00,,,0.00,WUHU216DAVISVP2,2013-11-01 09:15:00,
2013-11-01 05:18:00,46.0,42.3,28.70,WSW,256,15.0,23.0,87,0.00,,,0.00,WUHU216DAVISVP2,2013-11-01 09:18:00,
2013-11-01 05:19:00,46.0,42.3,28.70,West,280,9.0,23.0,87,0.00,,,0.00,WUHU216DAVISVP2,2013-11-01 09:19:00,
2013-11-01 05:20:00,45.9,42.2,28.70,West,268,11.0,23.0,87,0.00,,,0.00,WUHU216DAVISVP2,2013-11-01 09:20:00,
2013-11-01 05:21:00,45.9,42.2,28.70,WNW,299,8.0,23.0,87,0.00,,,0.00,WUHU216DAVISVP2,2013-11-01 09:21:00,
2013-11-01 05:23:00,45.8,42.1,28.70,WNW,292,7.0,16.0,87,0.00,,,0.00,WUHU216DAVISVP2,2013-11-01 09:23:00,
2013-11-01 05:24:00,45.8,42.1,28.70,West,269,9.0,16.0,87,0.00,,,0.00,WUHU216DAVISVP2,2013-11-01 09:24:00,
2013-11-01 05:25:00,45.7,42.0,28.70,West,275,10.0,16.0,87,0.00,,,0.00,WUHU216DAVISVP2,2013-11-01 09:25:00,
2013-11-01 05:26:00,45.7,42.0,28.71,WNW,296,12.0,16.0,87,0.00,,,0.00,WUHU216DAVISVP2,2013-11-01 09:26:00,
2013-11-01 05:28:00,45.7,42.0,28.71,West,261,14.0,18.0,87,0.00,,,0.00,WUHU216DAVISVP2,2013-11-01 09:28:00,
2013-11-01 05:29:00,45.6,41.9,28.71,West,262,16.0,18.0,87,0.00,,,0.00,WUHU216DAVISVP2,2013-11-01 09:29:00,
2013-11-01 05:30:00,45.7,42.0,28.71,WNW,285,18.0,20.0,87,0.00,,,0.00,WUHU216DAVISVP2,2013-11-01 09:30:00,
2013-11-01 05:32:00,45.7,42.3,28.71,West,272,10.0,20.0,88,0.00,,,0.00,WUHU216DAVISVP2,2013-11-01 09:32:00,
2013-11-01 05:33:00,45.7,42.3,28.72,West,266,10.0,20.0,88,0.00,,,0.00,WUHU216DAVISVP2,2013-11-01 09:33:00,
2013-11-01 05:34:00,45.7,42.3,28.72,West,279,11.0,20.0,88,0.00,,,0.00,WUHU216DAVISVP2,2013-11-01 09:34:00,
2013-11-01 05:35:00,45.7,42.3,28.72,West,269,9.0,20.0,88,0.00,,,0.00,WUHU216DAVISVP2,2013-11-01 09:35:00,
2013-11-01 05:36:00,45.7,42.3,28.72,WNW,295,10.0,20.0,88,0.00,,,0.00,WUHU216DAVISVP2,2013-11-01 09:36:00,
2013-11-01 05:37:00,45.7,42.3,28.72,WSW,258,10.0,20.0,88,0.00,,,0.00,WUHU216DAVISVP2,2013-11-01 09:37:00,
2013-11-01 05:38:00,45.7,42.3,28.71,West,270,7.0,20.0,88,0.00,,,0.00,WUHU216DAVISVP2,2013-11-01 09:38:00,
2013-11-01 05:39:00,45.7,42.3,28.71,West,259,9.0,20.0,88,0.00,,,0.00,WUHU216DAVISVP2,2013-11-01 09:39:00,
2013-11-01 05:40:00,45.7,42.3,28.72,West,276,15.0,20.0,88,0.00,,,0.00,WUHU216DAVISVP2,2013-11-01 09:40:00,
2013-11-01 05:42:00,45.7,42.3,28.72,West,271,11.0,20.0,88,0.00,,,0.00,WUHU216DAVISVP2,2013-11-01 09:42:00,
2013-11-01 05:44:00,45.7,42.3,28.72,West,264,7.0,20.0,88,0.00,,,0.00,WUHU216DAVISVP2,2013-11-01 09:44:00,
2013-11-01 05:45:00,45.8,42.4,28.72,West,270,10.0,20.0,88,0.00,,,0.00,WUHU216DAVISVP2,2013-11-01 09:45:00,
2013-11-01 05:46:00,45.8,42.4,28.72,WNW,291,9.0,20.0,88,0.00,,,0.00,WUHU216DAVISVP2,2013-11-01 09:46:00,
2013-11-01 05:47:00,45.8,42.4,28.72,WSW,258,10.0,20.0,88,0.00,,,0.00,WUHU216DAVISVP2,2013-11-01 09:47:00,
2013-11-01 05:49:00,45.7,42.3,28.73,West,260,7.0,20.0,88,0.00,,,0.00,WUHU216DAVISVP2,2013-11-01 09:49:00,
2013-11-01 05:50:00,45.8,42.4,28.73,WSW,246,11.0,20.0,88,0.00,,,0.00,WUHU216DAVISVP2,2013-11-01 09:50:00,
2013-11-01 05:51:00,45.8,42.4,28.73,West,259,13.0,20.0,88,0.00,,,0.00,WUHU216DAVISVP2,2013-11-01 09:51:00,
2013-11-01 05:52:00,45.8,42.4,28.73,West,268,13.0,20.0,88,0.00,,,0.00,WUHU216DAVISVP2,2013-11-01 09:52:00,
2013-11-01 05:54:00,45.8,42.4,28.73,WSW,256,6.0,20.0,88,0.00,,,0.00,WUHU216DAVISVP2,2013-11-01 09:54:00,
2013-11-01 05:55:00,45.9,42.5,28.73,West,275,9.0,20.0,88,0.00,,,0.00,WUHU216DAVISVP2,2013-11-01 09:55:00,
2013-11-01 05:56:00,45.8,42.4,28.73,West,270,10.0,20.0,88,0.00,,,0.00,WUHU216DAVISVP2,2013-11-01 09:56:00,
2013-11-01 05:57:00,45.8,42.4,28.73,WSW,249,11.0,20.0,88,0.00,,,0.00,WUHU216DAVISVP2,2013-11-01 09:57:00,
2013-11-01 05:59:00,45.9,42.5,28.73,WSW,250,8.0,20.0,88,0.00,,,0.00,WUHU216DAVISVP2,2013-11-01 09:59:00,
2013-11-01 06:00:00,45.9,42.8,28.73,WSW,258,2.0,20.0,89,0.00,,,0.00,WUHU216DAVISVP2,2013-11-01 10:00:00,
2013-11-01 06:01:00,45.9,42.8,28.73,WSW,258,5.0,20.0,89,0.00,,,0.00,WUHU216DAVISVP2,2013-11-01 10:01:00,
2013-11-01 06:02:00,45.9,42.8,28.73,WSW,241,10.0,20.0,89,0.00,,,0.00,WUHU216DAVISVP2,2013-11-01 10:02:00,
2013-11-01 06:03:00,45.9,42.8,28.73,WSW,249,13.0,20.0,89,0.00,,,0.00,WUHU216DAVISVP2,2013-11-01 10:03:00,
2013-11-01 06:04:00,45.9,42.8,28.73,West,277,7.0,20.0,89,0.00,,,0.00,WUHU216DAVISVP2,2013-11-01 10:04:00,
2013-11-01 06:06:00,45.9,42.8,28.73,West,262,13.0,20.0,89,0.00,,,0.00,WUHU216DAVISVP2,2013-11-01 10:06:00,
2013-11-01 06:08:00,45.9,42.8,28.73,SW,228,9.0,20.0,89,0.00,,,0.00,WUHU216DAVISVP2,2013-11-01 10:08:00,
2013-11-01 06:09:00,45.9,42.8,28.73,West,266,19.0,25.0,89,0.00,,,0.00,WUHU216DAVISVP2,2013-11-01 10:09:00,
2013-11-01 06:10:00,45.9,42.8,28.73,West,272,8.0,25.0,89,0.00,,,0.00,WUHU216DAVISVP2,2013-11-01 10:10:00,
2013-11-01 06:11:00,45.9,42.8,28.72,West,266,8.0,25.0,89,0.00,,,0.00,WUHU216DAVISVP2,2013-11-01 10:11:00,
2013-11-01 06:13:00,45.9,42.8,28.73,West,278,10.0,25.0,89,0.00,,,0.00,WUHU216DAVISVP2,2013-11-01 10:13:00,
2013-11-01 06:15:00,45.9,42.8,28.73,West,270,14.0,25.0,89,0.00,,,0.00,WUHU216DAVISVP2,2013-11-01 10:15:00,
2013-11-01 06:16:00,45.9,42.8,28.73,WNW,284,10.0,25.0,89,0.00,,,0.00,WUHU216DAVISVP2,2013-11-01 10:16:00,
2013-11-01 06:18:00,46.0,42.9,28.73,West,276,7.0,25.0,89,0.00,,,0.00,WUHU216DAVISVP2,2013-11-01 10:18:00,
2013-11-01 06:19:00,45.9,42.8,28.73,WNW,286,6.0,25.0,89,0.00,,,0.00,WUHU216DAVISVP2,2013-11-01 10:19:00,
2013-11-01 06:20:00,45.9,42.8,28.73,WSW,253,15.0,25.0,89,0.00,,,0.00,WUHU216DAVISVP2,2013-11-01 10:20:00,
2013-11-01 06:21:00,46.0,42.9,28.73,West,266,7.0,25.0,89,0.00,,,0.00,WUHU216DAVISVP2,2013-11-01 10:21:00,
2013-11-01 06:22:00,46.0,42.9,28.73,West,276,8.0,25.0,89,0.00,,,0.00,WUHU216DAVISVP2,2013-11-01 10:22:00,
2013-11-01 06:24:00,45.9,42.8,28.73,West,274,7.0,25.0,89,0.00,,,0.00,WUHU216DAVISVP2,2013-11-01 10:24:00,
2013-11-01 06:25:00,45.9,42.8,28.73,WSW,256,5.0,25.0,89,0.00,,,0.00,WUHU216DAVISVP2,2013-11-01 10:25:00,
2013-11-01 06:26:00,46.0,42.9,28.73,West,264,12.0,25.0,89,0.00,,,0.00,WUHU216DAVISVP2,2013-11-01 10:26:00,
2013-11-01 06:27:00,46.0,42.9,28.73,WSW,249,8.0,25.0,89,0.00,,,0.00,WUHU216DAVISVP2,2013-11-01 10:27:00,
2013-11-01 06:29:00,46.0,42.9,28.73,WSW,258,8.0,20.0,89,0.00,,,0.00,WUHU216DAVISVP2,2013-11-01 10:29:00,
2013-11-01 06:30:00,46.0,42.9,28.73,West,261,11.0,20.0,89,0.00,,,0.00,WUHU216DAVISVP2,2013-11-01 10:30:00,
2013-11-01 06:31:00,46.0,42.9,28.73,West,262,11.0,20.0,89,0.00,,,0.00,WUHU216DAVISVP2,2013-11-01 10:31:00,
2013-11-01 06:32:00,46.0,42.9,28.73,West,266,8.0,20.0,89,0.00,,,0.00,WUHU216DAVISVP2,2013-11-01 10:32:00,
2013-11-01 06:34:00,46.0,42.9,28.73,WSW,249,7.0,20.0,89,0.00,,,0.00,WUHU216DAVISVP2,2013-11-01 10:34:00,
2013-11-01 06:35:00,46.0,42.9,28.74,West,264,7.0,20.0,89,0.00,,,0.00,WUHU216DAVISVP2,2013-11-01 10:35:00,
2013-11-01 06:36:00,46.1,43.0,28.74,WSW,238,15.0,20.0,89,0.00,,,0.00,WUHU216DAVISVP2,2013-11-01 10:36:00,
2013-11-01 06:38:00,46.1,43.0,28.74,West,262,13.0,19.0,89,0.00,,,0.00,WUHU216DAVISVP2,2013-11-01 10:38:00,
2013-11-01 06:39:00,46.1,43.0,28.74,WSW,255,10.0,19.0,89,0.00,,,0.00,WUHU216DAVISVP2,2013-11-01 10:39:00,
2013-11-01 06:40:00,46.1,43.0,28.74,West,280,8.0,19.0,89,0.00,,,0.00,WUHU216DAVISVP2,2013-11-01 10:40:00,
2013-11-01 06:41:00,46.1,43.0,28.74,WSW,253,8.0,19.0,89,0.00,,,0.00,WUHU216DAVISVP2,2013-11-01 10:41:00,
2013-11-01 06:43:00,46.1,43.0,28.74,WSW,256,6.0,19.0,89,0.00,,,0.00,WUHU216DAVISVP2,2013-11-01 10:43:00,
2013-11-01 06:44:00,46.1,43.0,28.74,West,268,9.0,19.0,89,0.00,,,0.00,WUHU216DAVISVP2,2013-11-01 10:44:00,
2013-11-01 06:46:00,46.1,43.0,28.74,West,275,7.0,19.0,89,0.00,,,0.00,WUHU216DAVISVP2,2013-11-01 10:46:00,
2013-11-01 06:47:00,46.1,43.0,28.74,West,267,12.0,19.0,89,0.00,,,0.00,WUHU216DAVISVP2,2013-11-01 10:47:00,
2013-11-01 06:48:00,46.1,43.0,28.74,WSW,258,9.0,18.0,89,0.00,,,0.00,WUHU216DAVISVP2,2013-11-01 10:48:00,
2013-11-01 06:50:00,46.1,43.0,28.74,West,262,5.0,18.0,89,0.00,,,0.00,WUHU216DAVISVP2,2013-11-01 10:50:00,
2013-11-01 06:51:00,46.1,43.3,28.74,West,274,12.0,18.0,90,0.00,,,0.00,WUHU216DAVISVP2,2013-11-01 10:51:00,
2013-11-01 06:52:00,46.1,43.3,28.74,WNW,283,6.0,18.0,90,0.00,,,0.00,WUHU216DAVISVP2,2013-11-01 10:52:00,
2013-11-01 06:54:00,46.1,43.3,28.74,WSW,252,13.0,18.0,90,0.00,,,0.00,WUHU216DAVISVP2,2013-11-01 10:54:00,
2013-11-01 06:55:00,46.2,43.4,28.74,West,260,6.0,18.0,90,0.00,,,0.00,WUHU216DAVISVP2,2013-11-01 10:55:00,
2013-11-01 06:56:00,46.2,43.4,28.74,West,266,11.0,18.0,90,0.00,,,0.00,WUHU216DAVISVP2,2013-11-01 10:56:00,
2013-11-01 06:57:00,46.2,43.4,28.74,WSW,258,12.0,20.0,90,0.00,,,0.00,WUHU216DAVISVP2,2013-11-01 10:57:00,
2013-11-01 06:59:00,46.2,43.4,28.74,West,272,8.0,20.0,90,0.00,,,0.00,WUHU216DAVISVP2,2013-11-01 10:59:00,
2013-11-01 07:00:00,46.2,43.4,28.74,WSW,258,9.0,20.0,90,0.00,,,0.00,WUHU216DAVISVP2,2013-11-01 11:00:00,
2013-11-01 07:01:00,46.3,43.2,28.75,West,278,14.0,20.0,89,0.00,,,0.00,WUHU216DAVISVP2,2013-11-01 11:01:00,
2013-11-01 07:02:00,46.3,43.2,28.75,WSW,258,12.0,20.0,89,0.00,,,0.00,WUHU216DAVISVP2,2013-11-01 11:02:00,
2013-11-01 07:05:00,46.3,43.2,28.75,WNW,284,8.0,20.0,89,0.00,,,0.00,WUHU216DAVISVP2,2013-11-01 11:05:00,
2013-11-01 07:06:00,46.3,43.2,28.75,West,259,10.0,20.0,89,0.00,,,0.00,WUHU216DAVISVP2,2013-11-01 11:06:00,
2013-11-01 07:08:00,46.3,43.5,28.75,WSW,249,9.0,20.0,90,0.00,,,0.00,WUHU216DAVISVP2,2013-11-01 11:08:00,
2013-11-01 07:10:00,46.3,43.5,28.75,WSW,245,10.0,20.0,90,0.00,,,0.00,WUHU216DAVISVP2,2013-11-01 11:10:00,
2013-11-01 07:11:00,46.3,43.5,28.75,WSW,253,11.0,20.0,90,0.00,,,0.00,WUHU216DAVISVP2,2013-11-01 11:11:00,
2013-11-01 07:13:00,46.3,43.5,28.75,West,276,7.0,20.0,90,0.00,,,0.00,WUHU216DAVISVP2,2013-11-01 11:13:00,
2013-11-01 07:15:00,46.3,43.5,28.75,West,268,12.0,19.0,90,0.00,,,0.00,WUHU216DAVISVP2,2013-11-01 11:15:00,
2013-11-01 07:16:00,46.3,43.5,28.75,WSW,245,14.0,19.0,90,0.00,,,0.00,WUHU216DAVISVP2,2013-11-01 11:16:00,
2013-11-01 07:17:00,46.3,43.5,28.75,WSW,253,8.0,19.0,90,0.00,,,0.00,WUHU216DAVISVP2,2013-11-01 11:17:00,
2013-11-01 07:18:00,46.3,43.5,28.75,WSW,245,13.0,19.0,90,0.00,,,0.00,WUHU216DAVISVP2,2013-11-01 11:18:00,
2013-11-01 07:20:00,46.3,43.5,28.75,West,273,7.0,19.0,90,0.00,,,0.00,WUHU216DAVISVP2,2013-11-01 11:20:00,
2013-11-01 07:21:00,46.3,43.5,28.76,West,269,4.0,19.0,90,0.00,,,0.00,WUHU216DAVISVP2,2013-11-01 11:21:00,
2013-11-01 07:22:00,46.3,43.5,28.76,West,264,9.0,19.0,90,0.00,,,0.00,WUHU216DAVISVP2,2013-11-01 11:22:00,
2013-11-01 07:23:00,46.3,43.5,28.75,SW,215,4.0,19.0,90,0.00,,,0.00,WUHU216DAVISVP2,2013-11-01 11:23:00,
2013-11-01 07:25:00,46.3,43.5,28.76,WSW,257,9.0,19.0,90,0.00,,,0.00,WUHU216DAVISVP2,2013-11-01 11:25:00,
2013-11-01 07:26:00,46.4,43.6,28.76,West,268,12.0,19.0,90,0.00,,,0.00,WUHU216DAVISVP2,2013-11-01 11:26:00,
2013-11-01 07:29:00,46.4,43.6,28.76,West,267,7.0,19.0,90,0.00,,,0.00,WUHU216DAVISVP2,2013-11-01 11:29:00,
2013-11-01 07:31:00,46.4,43.6,28.76,West,272,9.0,19.0,90,0.00,,,0.00,WUHU216DAVISVP2,2013-11-01 11:31:00,
2013-11-01 07:32:00,46.4,43.6,28.76,WSW,243,8.0,19.0,90,0.00,,,0.00,WUHU216DAVISVP2,2013-11-01 11:32:00,
2013-11-01 07:34:00,46.4,43.6,28.76,WSW,243,5.0,19.0,90,0.00,,,0.00,WUHU216DAVISVP2,2013-11-01 11:34:00,
2013-11-01 07:36:00,46.4,43.6,28.76,WSW,246,10.0,19.0,90,0.00,,,0.00,WUHU216DAVISVP2,2013-11-01 11:36:00,
2013-11-01 07:37:00,46.4,43.6,28.76,WSW,250,8.0,19.0,90,0.00,,,0.00,WUHU216DAVISVP2,2013-11-01 11:37:00,
2013-11-01 07:39:00,46.5,43.7,28.76,WSW,257,7.0,19.0,90,0.00,,,0.00,WUHU216DAVISVP2,2013-11-01 11:39:00,
2013-11-01 07:41:00,46.5,43.7,28.76,WSW,250,9.0,19.0,90,0.00,,,0.00,WUHU216DAVISVP2,2013-11-01 11:41:00,
2013-11-01 07:42:00,46.5,43.7,28.76,West,259,13.0,20.0,90,0.00,,,0.00,WUHU216DAVISVP2,2013-11-01 11:42:00,
2013-11-01 07:44:00,46.5,43.7,28.77,WSW,250,9.0,20.0,90,0.00,,,0.00,WUHU216DAVISVP2,2013-11-01 11:44:00,
2013-11-01 07:46:00,46.5,43.7,28.77,SW,235,12.0,20.0,90,0.00,,,0.00,WUHU216DAVISVP2,2013-11-01 11:46:00,
2013-11-01 07:47:00,46.5,43.7,28.77,WSW,241,10.0,20.0,90,0.00,,,0.00,WUHU216DAVISVP2,2013-11-01 11:47:00,
2013-11-01 07:50:00,46.5,43.7,28.77,West,262,15.0,20.0,90,0.00,,,0.00,WUHU216DAVISVP2,2013-11-01 11:50:00,
2013-11-01 07:51:00,46.6,43.8,28.77,WSW,258,14.0,21.0,90,0.00,,,0.00,WUHU216DAVISVP2,2013-11-01 11:51:00,
2013-11-01 07:52:00,46.6,43.8,28.77,West,262,11.0,21.0,90,0.00,,,0.00,WUHU216DAVISVP2,2013-11-01 11:52:00,
2013-11-01 07:54:00,46.6,43.8,28.77,West,267,9.0,21.0,90,0.00,,,0.00,WUHU216DAVISVP2,2013-11-01 11:54:00,
2013-11-01 07:56:00,46.6,43.8,28.77,West,269,16.0,21.0,90,0.00,,,0.00,WUHU216DAVISVP2,2013-11-01 11:56:00,
2013-11-01 07:57:00,46.6,43.8,28.77,WSW,239,12.0,21.0,90,0.00,,,0.00,WUHU216DAVISVP2,2013-11-01 11:57:00,
2013-11-01 07:59:00,46.6,43.8,28.77,WSW,243,11.0,21.0,90,0.00,,,0.00,WUHU216DAVISVP2,2013-11-01 11:59:00,
2013-11-01 08:01:00,46.6,43.8,28.77,WNW,282,6.0,21.0,90,0.00,,,0.00,WUHU216DAVISVP2,2013-11-01 12:01:00,
2013-11-01 08:02:00,46.6,43.8,28.77,WSW,245,11.0,21.0,90,0.00,,,0.00,WUHU216DAVISVP2,2013-11-01 12:02:00,
2013-11-01 08:03:00,46.7,43.9,28.77,West,269,10.0,21.0,90,0.00,,,0.00,WUHU216DAVISVP2,2013-11-01 12:03:00,
2013-11-01 08:04:00,46.7,43.9,28.77,WNW,287,10.0,21.0,90,0.00,,,0.00,WUHU216DAVISVP2,2013-11-01 12:04:00,
2013-11-01 08:06:00,46.7,43.9,28.77,West,260,14.0,21.0,90,0.00,,,0.00,WUHU216DAVISVP2,2013-11-01 12:06:00,
2013-11-01 08:07:00,46.7,43.9,28.77,West,264,8.0,21.0,90,0.00,,,0.00,WUHU216DAVISVP2,2013-11-01 12:07:00,
2013-11-01 08:08:00,46.7,44.2,28.77,West,276,12.0,21.0,91,0.00,,,0.00,WUHU216DAVISVP2,2013-11-01 12:08:00,
2013-11-01 08:10:00,46.7,44.2,28.77,WNW,298,6.0,21.0,91,0.00,,,0.00,WUHU216DAVISVP2,2013-11-01 12:10:00,
2013-11-01 08:11:00,46.7,44.2,28.77,West,270,15.0,21.0,91,0.00,,,0.00,WUHU216DAVISVP2,2013-11-01 12:11:00,
2013-11-01 08:12:00,46.7,44.2,28.77,West,266,11.0,21.0,91,0.00,,,0.00,WUHU216DAVISVP2,2013-11-01 12:12:00,
2013-11-01 08:13:00,46.7,44.2,28.77,WSW,251,10.0,21.0,91,0.00,,,0.00,WUHU216DAVISVP2,2013-11-01 12:13:00,
2013-11-01 08:15:00,46.7,44.2,28.77,WNW,283,14.0,21.0,91,0.00,,,0.00,WUHU216DAVISVP2,2013-11-01 12:15:00,
2013-11-01 08:17:00,46.7,44.2,28.77,West,260,11.0,20.0,91,0.00,,,0.00,WUHU216DAVISVP2,2013-11-01 12:17:00,
2013-11-01 08:18:00,46.8,44.3,28.77,WNW,299,11.0,20.0,91,0.00,,,0.00,WUHU216DAVISVP2,2013-11-01 12:18:00,
2013-11-01 08:19:00,46.7,44.2,28.77,West,266,10.0,23.0,91,0.00,,,0.00,WUHU216DAVISVP2,2013-11-01 12:19:00,
2013-11-01 08:20:00,46.8,44.3,28.77,WNW,295,11.0,23.0,91,0.00,,,0.00,WUHU216DAVISVP2,2013-11-01 12:20:00,
2013-11-01 08:22:00,46.8,44.3,28.78,WNW,292,11.0,23.0,91,0.00,,,0.00,WUHU216DAVISVP2,2013-11-01 12:22:00,
2013-11-01 08:23:00,46.8,44.3,28.78,West,279,6.0,23.0,91,0.00,,,0.00,WUHU216DAVISVP2,2013-11-01 12:23:00,
2013-11-01 08:24:00,46.8,44.3,28.78,West,277,13.0,23.0,91,0.00,,,0.00,WUHU216DAVISVP2,2013-11-01 12:24:00,
2013-11-01 08:25:00,46.8,44.3,28.78,WSW,257,10.0,24.0,91,0.00,,,0.00,WUHU216DAVISVP2,2013-11-01 12:25:00,
2013-11-01 08:27:00,46.8,44.3,28.78,West,276,8.0,24.0,91,0.00,,,0.00,WUHU216DAVISVP2,2013-11-01 12:27:00,
2013-11-01 08:29:00,46.8,44.3,28.78,West,266,22.0,24.0,91,0.00,,,0.00,WUHU216DAVISVP2,2013-11-01 12:29:00,
2013-11-01 08:30:00,46.8,44.3,28.78,WSW,258,10.0,24.0,91,0.00,,,0.00,WUHU216DAVISVP2,2013-11-01 12:30:00,
2013-11-01 08:31:00,46.8,44.3,28.78,WNW,300,6.0,24.0,91,0.00,,,0.00,WUHU216DAVISVP2,2013-11-01 12:31:00,
2013-11-01 08:32:00,46.8,44.3,28.78,WNW,298,7.0,24.0,91,0.00,,,0.00,WUHU216DAVISVP2,2013-11-01 12:32:00,
2013-11-01 08:34:00,46.8,44.3,28.78,West,260,12.0,24.0,91,0.00,,,0.00,WUHU216DAVISVP2,2013-11-01 12:34:00,
2013-11-01 08:35:00,46.8,44.3,28.77,West,268,18.0,24.0,91,0.00,,,0.00,WUHU216DAVISVP2,2013-11-01 12:35:00,
2013-11-01 08:36:00,46.8,44.3,28.78,West,269,11.0,24.0,91,0.00,,,0.00,WUHU216DAVISVP2,2013-11-01 12:36:00,
2013-11-01 08:37:00,46.8,44.3,28.78,WSW,243,13.0,24.0,91,0.00,,,0.00,WUHU216DAVISVP2,2013-11-01 12:37:00,
2013-11-01 08:39:00,46.8,44.3,28.78,West,280,12.0,24.0,91,0.00,,,0.00,WUHU216DAVISVP2,2013-11-01 12:39:00,
2013-11-01 08:40:00,46.8,44.3,28.78,WNW,300,10.0,24.0,91,0.00,,,0.00,WUHU216DAVISVP2,2013-11-01 12:40:00,
2013-11-01 08:41:00,46.8,44.3,28.78,West,281,7.0,24.0,91,0.00,,,0.00,WUHU216DAVISVP2,2013-11-01 12:41:00,
2013-11-01 08:42:00,46.8,44.3,28.78,West,271,5.0,24.0,91,0.00,,,0.00,WUHU216DAVISVP2,2013-11-01 12:42:00,
2013-11-01 08:44:00,46.7,44.5,28.78,West,266,13.0,22.0,92,0.00,,,0.00,WUHU216DAVISVP2,2013-11-01 12:44:00,
2013-11-01 08:46:00,46.7,44.5,28.78,WNW,286,13.0,22.0,92,0.00,,,0.00,WUHU216DAVISVP2,2013-11-01 12:46:00,
2013-11-01 08:47:00,46.7,44.5,28.78,West,262,11.0,22.0,92,0.00,,,0.00,WUHU216DAVISVP2,2013-11-01 12:47:00,
2013-11-01 08:49:00,46.7,44.5,28.78,West,271,11.0,19.0,92,0.00,,,0.00,WUHU216DAVISVP2,2013-11-01 12:49:00,
2013-11-01 08:50:00,46.7,44.5,28.78,West,260,7.0,19.0,92,0.00,,,0.00,WUHU216DAVISVP2,2013-11-01 12:50:00,
2013-11-01 08:51:00,46.7,44.5,28.78,WSW,237,9.0,19.0,92,0.00,,,0.00,WUHU216DAVISVP2,2013-11-01 12:51:00,
2013-11-01 08:52:00,46.7,44.5,28.78,WSW,254,14.0,19.0,92,0.00,,,0.00,WUHU216DAVISVP2,2013-11-01 12:52:00,
2013-11-01 08:53:00,46.7,44.5,28.78,West,261,9.0,19.0,92,0.00,,,0.00,WUHU216DAVISVP2,2013-11-01 12:53:00,
2013-11-01 08:54:00,46.7,44.5,28.78,WSW,254,8.0,16.0,92,0.00,,,0.00,WUHU216DAVISVP2,2013-11-01 12:54:00,
2013-11-01 08:55:00,46.7,44.5,28.78,West,260,9.0,16.0,92,0.00,,,0.00,WUHU216DAVISVP2,2013-11-01 12:55:00,
2013-11-01 08:57:00,46.7,44.5,28.78,WNW,301,10.0,16.0,92,0.00,,,0.00,WUHU216DAVISVP2,2013-11-01 12:57:00,
2013-11-01 08:58:00,46.7,44.5,28.78,West,278,6.0,16.0,92,0.00,,,0.00,WUHU216DAVISVP2,2013-11-01 12:58:00,
2013-11-01 08:59:00,46.7,44.5,28.79,West,279,13.0,16.0,92,0.00,,,0.00,WUHU216DAVISVP2,2013-11-01 12:59:00,
2013-11-01 09:00:00,46.7,44.5,28.79,NW,310,9.0,16.0,92,0.00,,,0.00,WUHU216DAVISVP2,2013-11-01 13:00:00,
2013-11-01 09:02:00,46.6,44.6,28.79,West,280,9.0,18.0,93,0.00,,,0.00,WUHU216DAVISVP2,2013-11-01 13:02:00,
2013-11-01 09:03:00,46.7,44.7,28.79,WNW,297,12.0,18.0,93,0.00,,,0.00,WUHU216DAVISVP2,2013-11-01 13:03:00,
2013-11-01 09:04:00,46.7,44.7,28.79,West,273,9.0,20.0,93,0.00,,,0.00,WUHU216DAVISVP2,2013-11-01 13:04:00,
2013-11-01 09:05:00,46.6,44.6,28.79,WNW,289,12.0,20.0,93,0.00,,,0.00,WUHU216DAVISVP2,2013-11-01 13:05:00,
2013-11-01 09:07:00,46.7,44.7,28.79,WNW,289,8.0,20.0,93,0.00,,,0.00,WUHU216DAVISVP2,2013-11-01 13:07:00,
2013-11-01 09:08:00,46.7,44.7,28.79,West,260,10.0,20.0,93,0.00,,,0.00,WUHU216DAVISVP2,2013-11-01 13:08:00,
2013-11-01 09:09:00,46.7,44.7,28.79,WSW,255,7.0,20.0,93,0.00,,,0.00,WUHU216DAVISVP2,2013-11-01 13:09:00,
2013-11-01 09:11:00,46.7,44.7,28.79,West,274,13.0,20.0,93,0.00,,,0.00,WUHU216DAVISVP2,2013-11-01 13:11:00,
2013-11-01 09:13:00,46.7,44.7,28.79,WNW,301,11.0,20.0,93,0.00,,,0.00,WUHU216DAVISVP2,2013-11-01 13:13:00,
2013-11-01 09:14:00,46.7,44.7,28.79,West,261,13.0,20.0,93,0.00,,,0.00,WUHU216DAVISVP2,2013-11-01 13:14:00,
2013-11-01 09:15:00,46.7,44.7,28.79,West,264,13.0,20.0,93,0.00,,,0.00,WUHU216DAVISVP2,2013-11-01 13:15:00,
2013-11-01 09:16:00,46.7,44.7,28.79,WSW,258,9.0,20.0,93,0.00,,,0.00,WUHU216DAVISVP2,2013-11-01 13:16:00,
2013-11-01 09:17:00,46.7,44.7,28.79,West,270,3.0,20.0,93,0.00,,,0.00,WUHU216DAVISVP2,2013-11-01 13:17:00,
2013-11-01 09:18:00,46.7,44.7,28.78,West,278,12.0,20.0,93,0.00,,,0.00,WUHU216DAVISVP2,2013-11-01 13:18:00,
2013-11-01 09:19:00,46.7,44.7,28.78,WSW,247,7.0,20.0,93,0.00,,,0.00,WUHU216DAVISVP2,2013-11-01 13:19:00,
2013-11-01 09:20:00,46.7,44.7,28.79,SW,214,4.0,20.0,93,0.00,,,0.00,WUHU216DAVISVP2,2013-11-01 13:20:00,
2013-11-01 09:21:00,46.7,44.7,28.79,WSW,242,18.0,20.0,93,0.00,,,0.00,WUHU216DAVISVP2,2013-11-01 13:21:00,
2013-11-01 09:22:00,46.7,44.7,28.79,WSW,249,9.0,20.0,93,0.00,,,0.00,WUHU216DAVISVP2,2013-11-01 13:22:00,
2013-11-01 09:23:00,46.8,44.8,28.79,SW,223,7.0,18.0,93,0.00,,,0.00,WUHU216DAVISVP2,2013-11-01 13:23:00,
2013-11-01 09:24:00,46.8,44.8,28.79,SW,215,7.0,18.0,93,0.00,,,0.00,WUHU216DAVISVP2,2013-11-01 13:24:00,
2013-11-01 09:25:00,46.8,44.8,28.79,WNW,289,0.0,18.0,93,0.00,,,0.00,WUHU216DAVISVP2,2013-11-01 13:25:00,
2013-11-01 09:26:00,46.8,44.8,28.79,WSW,255,11.0,18.0,93,0.00,,,0.00,WUHU216DAVISVP2,2013-11-01 13:26:00,
2013-11-01 09:27:00,46.8,44.8,28.79,West,280,16.0,18.0,93,0.00,,,0.00,WUHU216DAVISVP2,2013-11-01 13:27:00,
2013-11-01 09:28:00,46.9,44.9,28.79,WSW,251,9.0,18.0,93,0.00,,,0.00,WUHU216DAVISVP2,2013-11-01 13:28:00,
2013-11-01 09:29:00,46.9,44.9,28.79,West,265,10.0,18.0,93,0.00,,,0.00,WUHU216DAVISVP2,2013-11-01 13:29:00,
2013-11-01 09:30:00,46.9,44.9,28.79,West,266,10.0,18.0,93,0.00,,,0.00,WUHU216DAVISVP2,2013-11-01 13:30:00,
2013-11-01 09:31:00,46.9,44.9,28.79,WSW,253,8.0,18.0,93,0.00,,,0.00,WUHU216DAVISVP2,2013-11-01 13:31:00,
2013-11-01 09:32:00,46.9,44.9,28.79,WSW,246,11.0,18.0,93,0.00,,,0.00,WUHU216DAVISVP2,2013-11-01 13:32:00,
2013-11-01 09:34:00,47.0,45.0,28.78,WSW,257,8.0,18.0,93,0.00,,,0.00,WUHU216DAVISVP2,2013-11-01 13:34:00,
2013-11-01 09:35:00,47.0,45.0,28.78,WSW,258,4.0,18.0,93,0.00,,,0.00,WUHU216DAVISVP2,2013-11-01 13:35:00,
2013-11-01 09:37:00,47.0,45.0,28.78,WSW,253,11.0,22.0,93,0.00,,,0.00,WUHU216DAVISVP2,2013-11-01 13:37:00,
2013-11-01 09:38:00,47.1,45.1,28.78,WSW,252,9.0,22.0,93,0.00,,,0.00,WUHU216DAVISVP2,2013-11-01 13:38:00,
2013-11-01 09:39:00,47.1,45.1,28.78,West,266,10.0,22.0,93,0.00,,,0.00,WUHU216DAVISVP2,2013-11-01 13:39:00,
2013-11-01 09:40:00,47.2,45.2,28.78,West,266,13.0,22.0,93,0.00,,,0.00,WUHU216DAVISVP2,2013-11-01 13:40:00,
2013-11-01 09:41:00,47.3,45.3,28.78,WSW,257,11.0,22.0,93,0.00,,,0.00,WUHU216DAVISVP2,2013-11-01 13:41:00,
2013-11-01 09:42:00,47.3,45.3,28.78,WSW,244,12.0,22.0,93,0.00,,,0.00,WUHU216DAVISVP2,2013-11-01 13:42:00,
2013-11-01 09:43:00,47.3,45.3,28.78,WSW,243,10.0,22.0,93,0.00,,,0.00,WUHU216DAVISVP2,2013-11-01 13:43:00,
2013-11-01 09:44:00,47.4,45.1,28.78,West,260,11.0,22.0,92,0.00,,,0.00,WUHU216DAVISVP2,2013-11-01 13:44:00,
2013-11-01 09:45:00,47.4,45.1,28.78,West,261,6.0,22.0,92,0.00,,,0.00,WUHU216DAVISVP2,2013-11-01 13:45:00,
2013-11-01 09:46:00,47.5,45.2,28.79,West,260,12.0,22.0,92,0.00,,,0.00,WUHU216DAVISVP2,2013-11-01 13:46:00,
2013-11-01 09:47:00,47.5,45.2,28.79,West,261,11.0,22.0,92,0.00,,,0.00,WUHU216DAVISVP2,2013-11-01 13:47:00,
2013-11-01 09:48:00,47.5,45.2,28.79,WSW,256,4.0,22.0,92,0.00,,,0.00,WUHU216DAVISVP2,2013-11-01 13:48:00,
2013-11-01 09:50:00,47.6,45.3,28.79,WSW,258,11.0,22.0,92,0.00,,,0.00,WUHU216DAVISVP2,2013-11-01 13:50:00,
2013-11-01 09:51:00,47.6,45.3,28.79,WNW,291,10.0,22.0,92,0.00,,,0.00,WUHU216DAVISVP2,2013-11-01 13:51:00,
2013-11-01 09:52:00,47.7,45.2,28.79,West,277,8.0,22.0,91,0.00,,,0.00,WUHU216DAVISVP2,2013-11-01 13:52:00,
2013-11-01 09:53:00,47.8,45.3,28.79,West,263,6.0,22.0,91,0.00,,,0.00,WUHU216DAVISVP2,2013-11-01 13:53:00,
2013-11-01 09:55:00,47.9,45.4,28.79,West,262,5.0,22.0,91,0.00,,,0.00,WUHU216DAVISVP2,2013-11-01 13:55:00,
2013-11-01 09:57:00,47.9,45.4,28.79,WNW,303,7.0,18.0,91,0.00,,,0.00,WUHU216DAVISVP2,2013-11-01 13:57:00,
2013-11-01 09:58:00,48.0,45.5,28.79,West,266,7.0,19.0,91,0.00,,,0.00,WUHU216DAVISVP2,2013-11-01 13:58:00,
2013-11-01 10:00:00,48.1,45.6,28.79,West,260,5.0,19.0,91,0.00,,,0.00,WUHU216DAVISVP2,2013-11-01 14:00:00,
2013-11-01 10:02:00,48.1,45.3,28.79,WSW,258,20.0,20.0,90,0.00,,,0.00,WUHU216DAVISVP2,2013-11-01 14:02:00,
2013-11-01 10:03:00,48.1,45.3,28.78,WSW,256,8.0,20.0,90,0.00,,,0.00,WUHU216DAVISVP2,2013-11-01 14:03:00,
2013-11-01 10:05:00,48.2,45.1,28.79,West,262,14.0,20.0,89,0.00,,,0.00,WUHU216DAVISVP2,2013-11-01 14:05:00,
2013-11-01 10:07:00,48.2,45.1,28.79,WNW,283,13.0,20.0,89,0.00,,,0.00,WUHU216DAVISVP2,2013-11-01 14:07:00,
2013-11-01 10:08:00,48.2,45.1,28.79,West,271,7.0,20.0,89,0.00,,,0.00,WUHU216DAVISVP2,2013-11-01 14:08:00,
2013-11-01 10:09:00,48.2,45.1,28.79,WSW,246,10.0,20.0,89,0.00,,,0.00,WUHU216DAVISVP2,2013-11-01 14:09:00,
2013-11-01 10:10:00,48.2,45.1,28.79,West,270,10.0,20.0,89,0.00,,,0.00,WUHU216DAVISVP2,2013-11-01 14:10:00,
2013-11-01 10:11:00,48.3,45.2,28.79,WNW,293,7.0,20.0,89,0.00,,,0.00,WUHU216DAVISVP2,2013-11-01 14:11:00,
2013-11-01 10:13:00,48.3,45.2,28.78,West,267,6.0,20.0,89,0.00,,,0.00,WUHU216DAVISVP2,2013-11-01 14:13:00,
2013-11-01 10:14:00,48.3,45.2,28.78,WNW,294,13.0,20.0,89,0.00,,,0.00,WUHU216DAVISVP2,2013-11-01 14:14:00,
2013-11-01 10:15:00,48.4,45.3,28.78,West,267,7.0,20.0,89,0.00,,,0.00,WUHU216DAVISVP2,2013-11-01 14:15:00,
2013-11-01 10:16:00,48.4,45.3,28.78,West,274,7.0,20.0,89,0.00,,,0.00,WUHU216DAVISVP2,2013-11-01 14:16:00,
2013-11-01 10:18:00,48.4,45.3,28.78,West,280,9.0,20.0,89,0.00,,,0.00,WUHU216DAVISVP2,2013-11-01 14:18:00,
2013-11-01 10:19:00,48.5,45.1,28.79,WNW,291,10.0,20.0,88,0.00,,,0.00,WUHU216DAVISVP2,2013-11-01 14:19:00,
2013-11-01 10:20:00,48.5,45.1,28.78,West,276,11.0,20.0,88,0.00,,,0.00,WUHU216DAVISVP2,2013-11-01 14:20:00,
2013-11-01 10:21:00,48.5,45.1,28.78,West,263,18.0,20.0,88,0.00,,,0.00,WUHU216DAVISVP2,2013-11-01 14:21:00,
2013-11-01 10:23:00,48.5,44.8,28.78,SW,235,14.0,19.0,87,0.00,,,0.00,WUHU216DAVISVP2,2013-11-01 14:23:00,
2013-11-01 10:24:00,48.6,44.9,28.79,WNW,284,9.0,19.0,87,0.00,,,0.00,WUHU216DAVISVP2,2013-11-01 14:24:00,
2013-11-01 10:25:00,48.6,44.9,28.79,West,272,12.0,19.0,87,0.00,,,0.00,WUHU216DAVISVP2,2013-11-01 14:25:00,
2013-11-01 10:26:00,48.7,45.3,28.78,West,276,14.0,19.0,88,0.00,,,0.00,WUHU216DAVISVP2,2013-11-01 14:26:00,
2013-11-01 10:28:00,48.7,45.0,28.78,West,269,18.0,21.0,87,0.00,,,0.00,WUHU216DAVISVP2,2013-11-01 14:28:00,
2013-11-01 10:30:00,48.7,44.7,28.78,West,280,12.0,23.0,86,0.00,,,0.00,WUHU216DAVISVP2,2013-11-01 14:30:00,
2013-11-01 10:31:00,48.8,44.8,28.79,West,270,11.0,23.0,86,0.00,,,0.00,WUHU216DAVISVP2,2013-11-01 14:31:00,
2013-11-01 10:32:00,48.8,44.8,28.79,West,262,8.0,23.0,86,0.00,,,0.00,WUHU216DAVISVP2,2013-11-01 14:32:00,
2013-11-01 10:33:00,48.9,44.9,28.78,WSW,255,3.0,23.0,86,0.00,,,0.00,WUHU216DAVISVP2,2013-11-01 14:33:00,
2013-11-01 10:35:00,49.0,45.0,28.78,NW,305,11.0,23.0,86,0.00,,,0.00,WUHU216DAVISVP2,2013-11-01 14:35:00,
2013-11-01 10:36:00,49.0,45.0,28.79,WSW,258,11.0,23.0,86,0.00,,,0.00,WUHU216DAVISVP2,2013-11-01 14:36:00,
2013-11-01 10:37:00,49.0,45.0,28.79,West,272,15.0,23.0,86,0.00,,,0.00,WUHU216DAVISVP2,2013-11-01 14:37:00,
2013-11-01 10:39:00,49.0,44.7,28.79,West,268,14.0,23.0,85,0.00,,,0.00,WUHU216DAVISVP2,2013-11-01 14:39:00,
2013-11-01 10:40:00,49.0,44.7,28.80,West,271,14.0,23.0,85,0.00,,,0.00,WUHU216DAVISVP2,2013-11-01 14:40:00,
2013-11-01 10:41:00,49.1,44.8,28.80,WSW,253,4.0,23.0,85,0.00,,,0.00,WUHU216DAVISVP2,2013-11-01 14:41:00,
2013-11-01 10:42:00,49.1,44.8,28.80,WNW,289,6.0,23.0,85,0.00,,,0.00,WUHU216DAVISVP2,2013-11-01 14:42:00,
2013-11-01 10:44:00,49.2,44.9,28.80,West,278,8.0,23.0,85,0.00,,,0.00,WUHU216DAVISVP2,2013-11-01 14:44:00,
2013-11-01 10:46:00,49.2,44.9,28.80,West,277,8.0,23.0,85,0.00,,,0.00,WUHU216DAVISVP2,2013-11-01 14:46:00,
2013-11-01 10:47:00,49.3,44.7,28.79,West,275,14.0,23.0,84,0.00,,,0.00,WUHU216DAVISVP2,2013-11-01 14:47:00,
2013-11-01 10:49:00,49.4,44.8,28.79,WSW,258,10.0,22.0,84,0.00,,,0.00,WUHU216DAVISVP2,2013-11-01 14:49:00,
2013-11-01 10:51:00,49.4,44.5,28.79,WSW,257,10.0,22.0,83,0.00,,,0.00,WUHU216DAVISVP2,2013-11-01 14:51:00,
2013-11-01 10:52:00,49.5,44.6,28.79,WNW,300,10.0,22.0,83,0.00,,,0.00,WUHU216DAVISVP2,2013-11-01 14:52:00,
2013-11-01 10:56:00,49.6,44.7,28.79,West,276,8.0,22.0,83,0.00,,,0.00,WUHU216DAVISVP2,2013-11-01 14:56:00,
2013-11-01 10:57:00,49.6,44.7,28.79,West,260,12.0,19.0,83,0.00,,,0.00,WUHU216DAVISVP2,2013-11-01 14:57:00,
2013-11-01 10:58:00,49.7,44.8,28.80,West,271,8.0,19.0,83,0.00,,,0.00,WUHU216DAVISVP2,2013-11-01 14:58:00,
2013-11-01 11:01:00,49.8,44.9,28.80,West,275,13.0,19.0,83,0.00,,,0.00,WUHU216DAVISVP2,2013-11-01 15:01:00,
2013-11-01 11:02:00,49.8,44.9,28.80,WSW,251,9.0,19.0,83,0.00,,,0.00,WUHU216DAVISVP2,2013-11-01 15:02:00,
2013-11-01 11:03:00,49.8,44.5,28.80,West,266,12.0,19.0,82,0.00,,,0.00,WUHU216DAVISVP2,2013-11-01 15:03:00,
2013-11-01 11:07:00,49.8,44.5,28.80,WNW,285,7.0,19.0,82,0.00,,,0.00,WUHU216DAVISVP2,2013-11-01 15:07:00,
2013-11-01 11:08:00,49.9,44.6,28.80,WNW,282,8.0,19.0,82,0.00,,,0.00,WUHU216DAVISVP2,2013-11-01 15:08:00,
2013-11-01 11:09:00,49.9,44.6,28.80,WNW,294,9.0,19.0,82,0.00,,,0.00,WUHU216DAVISVP2,2013-11-01 15:09:00,
2013-11-01 11:12:00,49.8,44.5,28.80,West,272,12.0,24.0,82,0.00,,,0.00,WUHU216DAVISVP2,2013-11-01 15:12:00,
2013-11-01 11:13:00,49.8,44.2,28.80,West,276,11.0,24.0,81,0.00,,,0.00,WUHU216DAVISVP2,2013-11-01 15:13:00,
2013-11-01 11:14:00,49.8,44.2,28.80,West,276,8.0,24.0,81,0.00,,,0.00,WUHU216DAVISVP2,2013-11-01 15:14:00,
2013-11-01 11:15:00,49.8,44.2,28.80,WSW,255,20.0,24.0,81,0.00,,,0.00,WUHU216DAVISVP2,2013-11-01 15:15:00,
2013-11-01 11:17:00,49.8,44.2,28.80,West,263,14.0,24.0,81,0.00,,,0.00,WUHU216DAVISVP2,2013-11-01 15:17:00,
2013-11-01 11:18:00,49.7,43.8,28.80,West,278,10.0,24.0,80,0.00,,,0.00,WUHU216DAVISVP2,2013-11-01 15:18:00,
2013-11-01 11:19:00,49.8,44.2,28.80,West,280,14.0,24.0,81,0.00,,,0.00,WUHU216DAVISVP2,2013-11-01 15:19:00,
2013-11-01 11:20:00,49.7,44.1,28.80,West,279,9.0,24.0,81,0.00,,,0.00,WUHU216DAVISVP2,2013-11-01 15:20:00,
2013-11-01 11:22:00,49.8,44.2,28.80,West,271,7.0,24.0,81,0.00,,,0.00,WUHU216DAVISVP2,2013-11-01 15:22:00,
2013-11-01 11:23:00,49.9,44.3,28.80,WNW,291,12.0,24.0,81,0.00,,,0.00,WUHU216DAVISVP2,2013-11-01 15:23:00,
2013-11-01 11:24:00,49.8,44.2,28.80,West,273,11.0,24.0,81,0.00,,,0.00,WUHU216DAVISVP2,2013-11-01 15:24:00,
2013-11-01 11:25:00,49.8,44.2,28.80,West,265,6.0,24.0,81,0.00,,,0.00,WUHU216DAVISVP2,2013-11-01 15:25:00,
2013-11-01 11:27:00,49.9,44.3,28.80,WSW,252,9.0,24.0,81,0.00,,,0.00,WUHU216DAVISVP2,2013-11-01 15:27:00,
2013-11-01 11:28:00,49.9,44.3,28.80,WSW,255,11.0,24.0,81,0.00,,,0.00,WUHU216DAVISVP2,2013-11-01 15:28:00,
2013-11-01 11:29:00,50.0,44.4,28.80,West,261,6.0,24.0,81,0.00,,,0.00,WUHU216DAVISVP2,2013-11-01 15:29:00,
2013-11-01 11:30:00,50.0,44.4,28.80,WSW,247,9.0,24.0,81,0.00,,,0.00,WUHU216DAVISVP2,2013-11-01 15:30:00,
2013-11-01 11:33:00,50.1,44.2,28.80,WSW,248,9.0,24.0,80,0.00,,,0.00,WUHU216DAVISVP2,2013-11-01 15:33:00,
2013-11-01 11:34:00,50.1,44.2,28.80,WSW,258,16.0,24.0,80,0.00,,,0.00,WUHU216DAVISVP2,2013-11-01 15:34:00,
2013-11-01 11:35:00,50.1,44.2,28.80,SW,232,12.0,24.0,80,0.00,,,0.00,WUHU216DAVISVP2,2013-11-01 15:35:00,
2013-11-01 11:38:00,50.1,44.2,28.80,West,280,5.0,21.0,80,0.00,,,0.00,WUHU216DAVISVP2,2013-11-01 15:38:00,
2013-11-01 11:39:00,50.2,44.3,28.80,WNW,283,11.0,21.0,80,0.00,,,0.00,WUHU216DAVISVP2,2013-11-01 15:39:00,
2013-11-01 11:40:00,50.2,44.3,28.80,West,265,12.0,21.0,80,0.00,,,0.00,WUHU216DAVISVP2,2013-11-01 15:40:00,
2013-11-01 11:43:00,50.2,44.0,28.80,West,279,12.0,23.0,79,0.00,,,0.00,WUHU216DAVISVP2,2013-11-01 15:43:00,
2013-11-01 11:44:00,50.2,44.0,28.80,WSW,255,13.0,23.0,79,0.00,,,0.00,WUHU216DAVISVP2,2013-11-01 15:44:00,
2013-11-01 11:45:00,50.2,44.0,28.80,SW,222,14.0,23.0,79,0.00,,,0.00,WUHU216DAVISVP2,2013-11-01 15:45:00,
2013-11-01 11:46:00,50.2,44.0,28.80,West,268,12.0,23.0,79,0.00,,,0.00,WUHU216DAVISVP2,2013-11-01 15:46:00,
2013-11-01 11:48:00,50.2,44.3,28.80,West,266,14.0,23.0,80,0.00,,,0.00,WUHU216DAVISVP2,2013-11-01 15:48:00,
2013-11-01 11:49:00,50.2,44.3,28.80,WSW,256,12.0,23.0,80,0.00,,,0.00,WUHU216DAVISVP2,2013-11-01 15:49:00,
2013-11-01 11:50:00,50.2,44.3,28.80,WSW,253,13.0,23.0,80,0.00,,,0.00,WUHU216DAVISVP2,2013-11-01 15:50:00,
2013-11-01 11:51:00,50.2,44.3,28.80,West,265,13.0,23.0,80,0.00,,,0.00,WUHU216DAVISVP2,2013-11-01 15:51:00,
2013-11-01 11:53:00,50.3,44.4,28.80,West,260,15.0,23.0,80,0.00,,,0.00,WUHU216DAVISVP2,2013-11-01 15:53:00,
2013-11-01 11:54:00,50.2,44.0,28.80,WSW,258,21.0,23.0,79,0.00,,,0.00,WUHU216DAVISVP2,2013-11-01 15:54:00,
2013-11-01 11:55:00,50.2,44.0,28.80,West,265,13.0,23.0,79,0.00,,,0.00,WUHU216DAVISVP2,2013-11-01 15:55:00,
2013-11-01 11:57:00,50.3,44.1,28.80,West,280,10.0,23.0,79,0.00,,,0.00,WUHU216DAVISVP2,2013-11-01 15:57:00,
2013-11-01 11:59:00,50.4,44.2,28.80,WSW,238,18.0,23.0,79,0.00,,,0.00,WUHU216DAVISVP2,2013-11-01 15:59:00,
2013-11-01 12:00:00,50.4,44.2,28.80,West,270,13.0,23.0,79,0.00,,,0.00,WUHU216DAVISVP2,2013-11-01 16:00:00,
2013-11-01 12:02:00,50.4,43.9,28.80,WSW,257,11.0,23.0,78,0.00,,,0.00,WUHU216DAVISVP2,2013-11-01 16:02:00,
2013-11-01 12:03:00,50.5,44.3,28.81,WSW,255,16.0,23.0,79,0.00,,,0.00,WUHU216DAVISVP2,2013-11-01 16:03:00,
2013-11-01 12:04:00,50.5,44.3,28.81,West,280,16.0,23.0,79,0.00,,,0.00,WUHU216DAVISVP2,2013-11-01 16:04:00,
2013-11-01 12:05:00,50.4,44.2,28.80,SSW,212,12.0,23.0,79,0.00,,,0.00,WUHU216DAVISVP2,2013-11-01 16:05:00,
2013-11-01 12:06:00,50.4,44.2,28.80,SSW,210,6.0,23.0,79,0.00,,,0.00,WUHU216DAVISVP2,2013-11-01 16:06:00,
2013-11-01 12:07:00,50.4,44.2,28.80,West,262,15.0,23.0,79,0.00,,,0.00,WUHU216DAVISVP2,2013-11-01 16:07:00,
2013-11-01 12:08:00,50.4,44.2,28.80,WNW,287,9.0,23.0,79,0.00,,,0.00,WUHU216DAVISVP2,2013-11-01 16:08:00,
2013-11-01 12:09:00,50.4,44.2,28.80,West,280,7.0,23.0,79,0.00,,,0.00,WUHU216DAVISVP2,2013-11-01 16:09:00,
2013-11-01 12:10:00,50.5,44.3,28.80,SSW,213,8.0,23.0,79,0.00,,,0.00,WUHU216DAVISVP2,2013-11-01 16:10:00,
2013-11-01 12:11:00,50.4,43.9,28.80,West,269,14.0,23.0,78,0.00,,,0.00,WUHU216DAVISVP2,2013-11-01 16:11:00,
2013-11-01 12:12:00,50.4,43.9,28.80,West,265,10.0,23.0,78,0.00,,,0.00,WUHU216DAVISVP2,2013-11-01 16:12:00,
2013-11-01 12:14:00,50.4,44.2,28.80,WSW,255,19.0,23.0,79,0.00,,,0.00,WUHU216DAVISVP2,2013-11-01 16:14:00,
2013-11-01 12:15:00,50.4,43.9,28.80,WSW,251,10.0,23.0,78,0.00,,,0.00,WUHU216DAVISVP2,2013-11-01 16:15:00,
2013-11-01 12:17:00,50.5,44.3,28.81,WNW,287,13.0,23.0,79,0.00,,,0.00,WUHU216DAVISVP2,2013-11-01 16:17:00,
2013-11-01 12:19:00,50.5,44.3,28.81,West,267,5.0,22.0,79,0.00,,,0.00,WUHU216DAVISVP2,2013-11-01 16:19:00,
2013-11-01 12:20:00,50.5,44.3,28.81,WSW,238,11.0,22.0,79,0.00,,,0.00,WUHU216DAVISVP2,2013-11-01 16:20:00,
2013-11-01 12:21:00,50.5,44.3,28.81,West,263,7.0,20.0,79,0.00,,,0.00,WUHU216DAVISVP2,2013-11-01 16:21:00,
2013-11-01 12:22:00,50.5,44.3,28.81,West,271,12.0,20.0,79,0.00,,,0.00,WUHU216DAVISVP2,2013-11-01 16:22:00,
2013-11-01 12:24:00,50.5,43.9,28.81,WNW,284,11.0,19.0,78,0.00,,,0.00,WUHU216DAVISVP2,2013-11-01 16:24:00,
2013-11-01 12:25:00,50.5,43.9,28.81,WSW,257,13.0,19.0,78,0.00,,,0.00,WUHU216DAVISVP2,2013-11-01 16:25:00,
2013-11-01 12:26:00,50.5,43.9,28.81,West,262,15.0,19.0,78,0.00,,,0.00,WUHU216DAVISVP2,2013-11-01 16:26:00,
2013-11-01 12:27:00,50.4,43.9,28.81,West,280,13.0,19.0,78,0.00,,,0.00,WUHU216DAVISVP2,2013-11-01 16:27:00,
2013-11-01 12:29:00,50.4,43.9,28.81,WSW,245,21.0,22.0,78,0.00,,,0.00,WUHU216DAVISVP2,2013-11-01 16:29:00,
2013-11-01 12:30:00,50.3,43.8,28.81,West,268,9.0,23.0,78,0.00,,,0.00,WUHU216DAVISVP2,2013-11-01 16:30:00,
2013-11-01 12:31:00,50.3,43.8,28.81,WSW,255,6.0,23.0,78,0.00,,,0.00,WUHU216DAVISVP2,2013-11-01 16:31:00,
2013-11-01 12:32:00,50.3,43.8,28.81,WSW,251,14.0,23.0,78,0.00,,,0.00,WUHU216DAVISVP2,2013-11-01 16:32:00,
2013-11-01 12:34:00,50.3,43.8,28.81,WSW,249,11.0,23.0,78,0.00,,,0.00,WUHU216DAVISVP2,2013-11-01 16:34:00,
2013-11-01 12:35:00,50.3,43.4,28.81,WSW,243,9.0,23.0,77,0.00,,,0.00,WUHU216DAVISVP2,2013-11-01 16:35:00,
2013-11-01 12:36:00,50.3,43.8,28.81,WSW,253,9.0,23.0,78,0.00,,,0.00,WUHU216DAVISVP2,2013-11-01 16:36:00,
2013-11-01 12:38:00,50.4,43.5,28.81,West,272,6.0,23.0,77,0.00,,,0.00,WUHU216DAVISVP2,2013-11-01 16:38:00,
2013-11-01 12:39:00,50.4,43.9,28.81,WSW,254,9.0,23.0,78,0.00,,,0.00,WUHU216DAVISVP2,2013-11-01 16:39:00,
2013-11-01 12:40:00,50.5,43.9,28.81,West,261,5.0,23.0,78,0.00,,,0.00,WUHU216DAVISVP2,2013-11-01 16:40:00,
2013-11-01 12:41:00,50.5,43.9,28.81,WSW,255,15.0,23.0,78,0.00,,,0.00,WUHU216DAVISVP2,2013-11-01 16:41:00,
2013-11-01 12:43:00,50.5,43.9,28.81,West,263,8.0,23.0,78,0.00,,,0.00,WUHU216DAVISVP2,2013-11-01 16:43:00,
2013-11-01 12:44:00,50.5,43.9,28.81,West,266,15.0,23.0,78,0.00,,,0.00,WUHU216DAVISVP2,2013-11-01 16:44:00,
2013-11-01 12:45:00,50.5,43.9,28.81,West,263,11.0,23.0,78,0.00,,,0.00,WUHU216DAVISVP2,2013-11-01 16:45:00,
2013-11-01 12:46:00,50.5,43.9,28.81,WSW,258,9.0,23.0,78,0.00,,,0.00,WUHU216DAVISVP2,2013-11-01 16:46:00,
2013-11-01 12:47:00,50.5,43.9,28.81,West,265,14.0,23.0,78,0.00,,,0.00,WUHU216DAVISVP2,2013-11-01 16:47:00,
2013-11-01 12:48:00,50.5,43.9,28.81,WSW,238,8.0,23.0,78,0.00,,,0.00,WUHU216DAVISVP2,2013-11-01 16:48:00,
2013-11-01 12:50:00,50.6,44.0,28.81,WSW,251,13.0,21.0,78,0.00,,,0.00,WUHU216DAVISVP2,2013-11-01 16:50:00,
2013-11-01 12:51:00,50.6,43.7,28.81,West,271,7.0,24.0,77,0.00,,,0.00,WUHU216DAVISVP2,2013-11-01 16:51:00,
2013-11-01 12:53:00,50.6,43.7,28.81,WSW,249,11.0,24.0,77,0.00,,,0.00,WUHU216DAVISVP2,2013-11-01 16:53:00,
2013-11-01 12:55:00,50.6,43.7,28.81,WSW,256,13.0,24.0,77,0.00,,,0.00,WUHU216DAVISVP2,2013-11-01 16:55:00,
2013-11-01 12:56:00,50.5,43.6,28.81,WSW,253,8.0,24.0,77,0.00,,,0.00,WUHU216DAVISVP2,2013-11-01 16:56:00,
2013-11-01 12:58:00,50.5,43.6,28.81,WSW,248,6.0,24.0,77,0.00,,,0.00,WUHU216DAVISVP2,2013-11-01 16:58:00,
2013-11-01 12:59:00,50.5,43.6,28.81,West,268,6.0,24.0,77,0.00,,,0.00,WUHU216DAVISVP2,2013-11-01 16:59:00,
2013-11-01 13:00:00,50.5,43.6,28.81,West,262,6.0,24.0,77,0.00,,,0.00,WUHU216DAVISVP2,2013-11-01 17:00:00,
2013-11-01 13:02:00,50.5,43.6,28.81,West,260,11.0,24.0,77,0.00,,,0.00,WUHU216DAVISVP2,2013-11-01 17:02:00,
2013-11-01 13:04:00,50.5,43.6,28.82,West,259,14.0,24.0,77,0.00,,,0.00,WUHU216DAVISVP2,2013-11-01 17:04:00,
2013-11-01 13:05:00,50.5,43.9,28.82,WSW,253,10.0,24.0,78,0.00,,,0.00,WUHU216DAVISVP2,2013-11-01 17:05:00,
2013-11-01 13:06:00,50.5,43.9,28.82,West,270,9.0,24.0,78,0.00,,,0.00,WUHU216DAVISVP2,2013-11-01 17:06:00,
2013-11-01 13:07:00,50.5,43.9,28.82,West,274,8.0,24.0,78,0.00,,,0.00,WUHU216DAVISVP2,2013-11-01 17:07:00,
2013-11-01 13:09:00,50.5,43.9,28.81,West,264,8.0,21.0,78,0.00,,,0.00,WUHU216DAVISVP2,2013-11-01 17:09:00,
2013-11-01 13:10:00,50.6,44.0,28.81,West,266,7.0,21.0,78,0.00,,,0.00,WUHU216DAVISVP2,2013-11-01 17:10:00,
2013-11-01 13:11:00,50.6,44.0,28.81,WSW,239,11.0,20.0,78,0.00,,,0.00,WUHU216DAVISVP2,2013-11-01 17:11:00,
2013-11-01 13:12:00,50.6,44.0,28.81,WSW,258,12.0,20.0,78,0.00,,,0.00,WUHU216DAVISVP2,2013-11-01 17:12:00,
2013-11-01 13:14:00,50.6,44.0,28.81,WNW,292,6.0,16.0,78,0.00,,,0.00,WUHU216DAVISVP2,2013-11-01 17:14:00,
2013-11-01 13:15:00,50.7,44.1,28.81,West,276,12.0,16.0,78,0.00,,,0.00,WUHU216DAVISVP2,2013-11-01 17:15:00,
2013-11-01 13:16:00,50.7,44.1,28.81,North,359,9.0,16.0,78,0.00,,,0.00,WUHU216DAVISVP2,2013-11-01 17:16:00,
2013-11-01 13:17:00,50.7,44.1,28.81,West,276,13.0,16.0,78,0.00,,,0.00,WUHU216DAVISVP2,2013-11-01 17:17:00,
2013-11-01 13:19:00,50.6,44.0,28.81,West,260,10.0,18.0,78,0.00,,,0.00,WUHU216DAVISVP2,2013-11-01 17:19:00,
2013-11-01 13:20:00,50.6,44.0,28.81,West,270,6.0,18.0,78,0.00,,,0.00,WUHU216DAVISVP2,2013-11-01 17:20:00,
2013-11-01 13:21:00,50.6,44.4,28.81,West,270,6.0,18.0,79,0.00,,,0.00,WUHU216DAVISVP2,2013-11-01 17:21:00,
2013-11-01 13:22:00,50.6,44.4,28.81,SW,233,4.0,18.0,79,0.00,,,0.00,WUHU216DAVISVP2,2013-11-01 17:22:00,
2013-11-01 13:25:00,50.6,44.4,28.81,WSW,256,5.0,18.0,79,0.00,,,0.00,WUHU216DAVISVP2,2013-11-01 17:25:00,
2013-11-01 13:26:00,50.6,44.4,28.81,West,268,10.0,18.0,79,0.00,,,0.00,WUHU216DAVISVP2,2013-11-01 17:26:00,
2013-11-01 13:27:00,50.7,44.5,28.81,WNW,291,6.0,18.0,79,0.00,,,0.00,WUHU216DAVISVP2,2013-11-01 17:27:00,
2013-11-01 13:30:00,50.7,44.5,28.82,West,276,7.0,18.0,79,0.00,,,0.00,WUHU216DAVISVP2,2013-11-01 17:30:00,
2013-11-01 13:31:00,50.7,44.5,28.82,WSW,255,10.0,18.0,79,0.00,,,0.00,WUHU216DAVISVP2,2013-11-01 17:31:00,
2013-11-01 13:32:00,50.6,44.4,28.82,West,262,10.0,18.0,79,0.00,,,0.00,WUHU216DAVISVP2,2013-11-01 17:32:00,
2013-11-01 13:35:00,50.6,44.4,28.81,West,264,7.0,18.0,79,0.00,,,0.00,WUHU216DAVISVP2,2013-11-01 17:35:00,
2013-11-01 13:36:00,50.6,44.4,28.81,WSW,245,5.0,18.0,79,0.00,,,0.00,WUHU216DAVISVP2,2013-11-01 17:36:00,
2013-11-01 13:37:00,50.5,44.3,28.81,West,276,8.0,16.0,79,0.00,,,0.00,WUHU216DAVISVP2,2013-11-01 17:37:00,
2013-11-01 13:38:00,50.5,44.3,28.81,WSW,243,11.0,16.0,79,0.00,,,0.00,WUHU216DAVISVP2,2013-11-01 17:38:00,
2013-11-01 13:40:00,50.5,44.6,28.81,West,276,9.0,16.0,80,0.00,,,0.00,WUHU216DAVISVP2,2013-11-01 17:40:00,
2013-11-01 13:41:00,50.5,44.6,28.81,West,260,7.0,16.0,80,0.00,,,0.00,WUHU216DAVISVP2,2013-11-01 17:41:00,
2013-11-01 13:42:00,50.5,44.6,28.81,SW,235,6.0,22.0,80,0.00,,,0.00,WUHU216DAVISVP2,2013-11-01 17:42:00,
2013-11-01 13:43:00,50.5,44.6,28.81,West,260,12.0,22.0,80,0.00,,,0.00,WUHU216DAVISVP2,2013-11-01 17:43:00,
2013-11-01 13:46:00,50.5,44.3,28.81,WSW,257,8.0,22.0,79,0.00,,,0.00,WUHU216DAVISVP2,2013-11-01 17:46:00,
2013-11-01 13:48:00,50.6,44.4,28.81,West,262,8.0,22.0,79,0.00,,,0.00,WUHU216DAVISVP2,2013-11-01 17:48:00,
2013-11-01 13:51:00,50.6,44.7,28.81,West,266,12.0,22.0,80,0.00,,,0.00,WUHU216DAVISVP2,2013-11-01 17:51:00,
2013-11-01 13:52:00,50.6,44.4,28.81,West,266,7.0,22.0,79,0.00,,,0.00,WUHU216DAVISVP2,2013-11-01 17:52:00,
2013-11-01 13:53:00,50.6,44.4,28.81,West,260,7.0,22.0,79,0.00,,,0.00,WUHU216DAVISVP2,2013-11-01 17:53:00,
2013-11-01 13:56:00,50.7,44.5,28.80,West,277,11.0,22.0,79,0.00,,,0.00,WUHU216DAVISVP2,2013-11-01 17:56:00,
2013-11-01 13:57:00,50.7,44.5,28.80,WSW,255,7.0,22.0,79,0.00,,,0.00,WUHU216DAVISVP2,2013-11-01 17:57:00,
2013-11-01 13:58:00,50.8,44.6,28.81,WNW,284,8.0,22.0,79,0.00,,,0.00,WUHU216DAVISVP2,2013-11-01 17:58:00,
2013-11-01 14:02:00,50.9,44.7,28.81,NW,306,10.0,18.0,79,0.00,,,0.00,WUHU216DAVISVP2,2013-11-01 18:02:00,
2013-11-01 14:03:00,50.9,44.3,28.80,WSW,250,14.0,18.0,78,0.00,,,0.00,WUHU216DAVISVP2,2013-11-01 18:03:00,
2013-11-01 14:04:00,50.9,44.3,28.80,West,272,9.0,18.0,78,0.00,,,0.00,WUHU216DAVISVP2,2013-11-01 18:04:00,
2013-11-01 14:07:00,50.9,44.3,28.81,West,264,14.0,20.0,78,0.00,,,0.00,WUHU216DAVISVP2,2013-11-01 18:07:00,
2013-11-01 14:08:00,50.9,44.3,28.81,WNW,290,7.0,20.0,78,0.00,,,0.00,WUHU216DAVISVP2,2013-11-01 18:08:00,
2013-11-01 14:09:00,51.0,44.4,28.81,WNW,287,8.0,20.0,78,0.00,,,0.00,WUHU216DAVISVP2,2013-11-01 18:09:00,
2013-11-01 14:12:00,51.1,44.5,28.80,West,262,9.0,20.0,78,0.00,,,0.00,WUHU216DAVISVP2,2013-11-01 18:12:00,
2013-11-01 14:13:00,51.1,44.5,28.80,West,280,6.0,20.0,78,0.00,,,0.00,WUHU216DAVISVP2,2013-11-01 18:13:00,
2013-11-01 14:14:00,51.2,44.6,28.80,WSW,256,7.0,20.0,78,0.00,,,0.00,WUHU216DAVISVP2,2013-11-01 18:14:00,
2013-11-01 14:17:00,51.2,44.3,28.80,WSW,247,10.0,20.0,77,0.00,,,0.00,WUHU216DAVISVP2,2013-11-01 18:17:00,
2013-11-01 14:18:00,51.2,44.3,28.80,SSW,192,5.0,20.0,77,0.00,,,0.00,WUHU216DAVISVP2,2013-11-01 18:18:00,
2013-11-01 14:19:00,51.2,44.6,28.80,WNW,287,11.0,20.0,78,0.00,,,0.00,WUHU216DAVISVP2,2013-11-01 18:19:00,
2013-11-01 14:22:00,51.2,44.6,28.80,WSW,237,5.0,20.0,78,0.00,,,0.00,WUHU216DAVISVP2,2013-11-01 18:22:00,
2013-11-01 14:23:00,51.3,44.7,28.80,WNW,291,10.0,20.0,78,0.00,,,0.00,WUHU216DAVISVP2,2013-11-01 18:23:00,
2013-11-01 14:24:00,51.3,44.7,28.80,WNW,285,7.0,20.0,78,0.00,,,0.00,WUHU216DAVISVP2,2013-11-01 18:24:00,
2013-11-01 14:25:00,51.3,44.7,28.80,West,272,7.0,16.0,78,0.00,,,0.00,WUHU216DAVISVP2,2013-11-01 18:25:00,
2013-11-01 14:27:00,51.4,44.5,28.80,WNW,292,7.0,16.0,77,0.00,,,0.00,WUHU216DAVISVP2,2013-11-01 18:27:00,
2013-11-01 14:28:00,51.5,44.6,28.80,West,273,9.0,16.0,77,0.00,,,0.00,WUHU216DAVISVP2,2013-11-01 18:28:00,
2013-11-01 14:29:00,51.5,44.6,28.80,West,268,4.0,16.0,77,0.00,,,0.00,WUHU216DAVISVP2,2013-11-01 18:29:00,
2013-11-01 14:30:00,51.6,44.7,28.80,WNW,292,6.0,16.0,77,0.00,,,0.00,WUHU216DAVISVP2,2013-11-01 18:30:00,
2013-11-01 14:33:00,51.7,44.4,28.80,West,272,18.0,18.0,76,0.00,,,0.00,WUHU216DAVISVP2,2013-11-01 18:33:00,
2013-11-01 14:34:00,51.7,44.4,28.80,West,274,16.0,18.0,76,0.00,,,0.00,WUHU216DAVISVP2,2013-11-01 18:34:00,
2013-11-01 14:35:00,51.5,43.9,28.80,West,260,9.0,19.0,75,0.00,,,0.00,WUHU216DAVISVP2,2013-11-01 18:35:00,
2013-11-01 14:38:00,51.5,44.6,28.80,WSW,258,10.0,19.0,77,0.00,,,0.00,WUHU216DAVISVP2,2013-11-01 18:38:00,
2013-11-01 14:39:00,51.6,44.4,28.80,WNW,285,4.0,19.0,76,0.00,,,0.00,WUHU216DAVISVP2,2013-11-01 18:39:00,
2013-11-01 14:40:00,51.7,44.4,28.80,WSW,253,5.0,19.0,76,0.00,,,0.00,WUHU216DAVISVP2,2013-11-01 18:40:00,
2013-11-01 14:43:00,51.7,44.4,28.81,West,280,10.0,19.0,76,0.00,,,0.00,WUHU216DAVISVP2,2013-11-01 18:43:00,
2013-11-01 14:44:00,51.7,44.1,28.80,West,264,13.0,19.0,75,0.00,,,0.00,WUHU216DAVISVP2,2013-11-01 18:44:00,
2013-11-01 14:45:00,51.7,44.1,28.80,West,260,14.0,19.0,75,0.00,,,0.00,WUHU216DAVISVP2,2013-11-01 18:45:00,
2013-11-01 14:46:00,51.6,44.0,28.80,WSW,249,10.0,19.0,75,0.00,,,0.00,WUHU216DAVISVP2,2013-11-01 18:46:00,
2013-11-01 14:48:00,51.6,44.0,28.80,WSW,256,16.0,19.0,75,0.00,,,0.00,WUHU216DAVISVP2,2013-11-01 18:48:00,
2013-11-01 14:49:00,51.6,44.0,28.80,West,262,15.0,19.0,75,0.00,,,0.00,WUHU216DAVISVP2,2013-11-01 18:49:00,
2013-11-01 14:50:00,51.6,44.0,28.80,West,276,14.0,19.0,75,0.00,,,0.00,WUHU216DAVISVP2,2013-11-01 18:50:00,
2013-11-01 14:51:00,51.6,44.0,28.80,West,272,10.0,19.0,75,0.00,,,0.00,WUHU216DAVISVP2,2013-11-01 18:51:00,
2013-11-01 14:52:00,51.6,44.0,28.80,WSW,253,8.0,19.0,75,0.00,,,0.00,WUHU216DAVISVP2,2013-11-01 18:52:00,
2013-11-01 14:54:00,51.6,44.0,28.80,WSW,253,6.0,20.0,75,0.00,,,0.00,WUHU216DAVISVP2,2013-11-01 18:54:00,
2013-11-01 14:55:00,51.6,44.0,28.80,West,281,9.0,20.0,75,0.00,,,0.00,WUHU216DAVISVP2,2013-11-01 18:55:00,
2013-11-01 14:56:00,51.6,44.0,28.80,West,274,12.0,20.0,75,0.00,,,0.00,WUHU216DAVISVP2,2013-11-01 18:56:00,
2013-11-01 14:57:00,51.6,44.0,28.80,WNW,296,16.0,20.0,75,0.00,,,0.00,WUHU216DAVISVP2,2013-11-01 18:57:00,
2013-11-01 14:59:00,51.6,44.0,28.80,West,276,10.0,20.0,75,0.00,,,0.00,WUHU216DAVISVP2,2013-11-01 18:59:00,
2013-11-01 15:00:00,51.6,44.0,28.80,West,274,9.0,20.0,75,0.00,,,0.00,WUHU216DAVISVP2,2013-11-01 19:00:00,
2013-11-01 15:01:00,51.6,44.0,28.80,WNW,302,8.0,20.0,75,0.00,,,0.00,WUHU216DAVISVP2,2013-11-01 19:01:00,
2013-11-01 15:02:00,51.6,44.0,28.80,West,281,14.0,20.0,75,0.00,,,0.00,WUHU216DAVISVP2,2013-11-01 19:02:00,
2013-11-01 15:04:00,51.6,44.0,28.80,WNW,297,18.0,20.0,75,0.00,,,0.00,WUHU216DAVISVP2,2013-11-01 19:04:00,
2013-11-01 15:05:00,51.6,44.0,28.80,West,272,16.0,20.0,75,0.00,,,0.00,WUHU216DAVISVP2,2013-11-01 19:05:00,
2013-11-01 15:06:00,51.6,44.0,28.80,West,261,12.0,20.0,75,0.00,,,0.00,WUHU216DAVISVP2,2013-11-01 19:06:00,
2013-11-01 15:07:00,51.6,44.0,28.80,West,266,4.0,20.0,75,0.00,,,0.00,WUHU216DAVISVP2,2013-11-01 19:07:00,
2013-11-01 15:10:00,51.7,44.1,28.81,WNW,288,9.0,20.0,75,0.00,,,0.00,WUHU216DAVISVP2,2013-11-01 19:10:00,
2013-11-01 15:11:00,51.6,44.0,28.81,WNW,294,8.0,20.0,75,0.00,,,0.00,WUHU216DAVISVP2,2013-11-01 19:11:00,
2013-11-01 15:12:00,51.6,44.0,28.81,West,270,13.0,19.0,75,0.00,,,0.00,WUHU216DAVISVP2,2013-11-01 19:12:00,
2013-11-01 15:15:00,51.5,44.3,28.81,WNW,293,6.0,19.0,76,0.00,,,0.00,WUHU216DAVISVP2,2013-11-01 19:15:00,
2013-11-01 15:16:00,51.3,44.4,28.81,NW,322,6.0,19.0,77,0.00,,,0.00,WUHU216DAVISVP2,2013-11-01 19:16:00,
2013-11-01 15:17:00,51.2,44.3,28.81,NW,306,9.0,19.0,77,0.00,,,0.00,WUHU216DAVISVP2,2013-11-01 19:17:00,
2013-11-01 15:20:00,50.8,44.2,28.81,WNW,302,9.0,19.0,78,0.00,,,0.00,WUHU216DAVISVP2,2013-11-01 19:20:00,
2013-11-01 15:21:00,50.6,44.4,28.80,WNW,295,10.0,19.0,79,0.00,,,0.00,WUHU216DAVISVP2,2013-11-01 19:21:00,
2013-11-01 15:22:00,50.6,44.4,28.81,NW,307,7.0,19.0,79,0.00,,,0.00,WUHU216DAVISVP2,2013-11-01 19:22:00,
2013-11-01 15:23:00,50.5,44.3,28.81,NW,305,11.0,19.0,79,0.00,,,0.00,WUHU216DAVISVP2,2013-11-01 19:23:00,
2013-11-01 15:25:00,50.5,44.3,28.81,NW,309,10.0,19.0,79,0.00,,,0.00,WUHU216DAVISVP2,2013-11-01 19:25:00,
2013-11-01 15:26:00,50.4,44.2,28.81,NW,326,6.0,19.0,79,0.00,,,0.00,WUHU216DAVISVP2,2013-11-01 19:26:00,
2013-11-01 15:27:00,50.4,44.2,28.81,NW,320,7.0,19.0,79,0.00,,,0.00,WUHU216DAVISVP2,2013-11-01 19:27:00,
2013-11-01 15:28:00,50.3,44.4,28.81,NW,326,8.0,19.0,80,0.00,,,0.00,WUHU216DAVISVP2,2013-11-01 19:28:00,
2013-11-01 15:30:00,50.2,44.3,28.81,WNW,299,14.0,19.0,80,0.00,,,0.00,WUHU216DAVISVP2,2013-11-01 19:30:00,
2013-11-01 15:31:00,50.1,44.2,28.81,WNW,299,8.0,16.0,80,0.00,,,0.00,WUHU216DAVISVP2,2013-11-01 19:31:00,
2013-11-01 15:32:00,50.1,44.2,28.81,WNW,299,6.0,16.0,80,0.00,,,0.00,WUHU216DAVISVP2,2013-11-01 19:32:00,
2013-11-01 15:33:00,50.0,44.1,28.81,WNW,295,9.0,15.0,80,0.00,,,0.00,WUHU216DAVISVP2,2013-11-01 19:33:00,
2013-11-01 15:36:00,49.9,44.0,28.81,NW,306,7.0,15.0,80,0.00,,,0.00,WUHU216DAVISVP2,2013-11-01 19:36:00,
2013-11-01 15:37:00,49.9,44.0,28.81,WNW,303,11.0,15.0,80,0.00,,,0.00,WUHU216DAVISVP2,2013-11-01 19:37:00,
2013-11-01 15:38:00,49.9,44.0,28.81,WNW,293,9.0,15.0,80,0.00,,,0.00,WUHU216DAVISVP2,2013-11-01 19:38:00,
2013-11-01 15:39:00,49.9,44.0,28.81,WNW,296,13.0,15.0,80,0.00,,,0.00,WUHU216DAVISVP2,2013-11-01 19:39:00,
2013-11-01 15:41:00,49.8,43.9,28.81,WNW,300,10.0,15.0,80,0.00,,,0.00,WUHU216DAVISVP2,2013-11-01 19:41:00,
2013-11-01 15:42:00,49.8,43.9,28.82,WNW,283,5.0,15.0,80,0.00,,,0.00,WUHU216DAVISVP2,2013-11-01 19:42:00,
2013-11-01 15:44:00,49.8,44.2,28.82,WNW,296,12.0,15.0,81,0.00,,,0.00,WUHU216DAVISVP2,2013-11-01 19:44:00,
2013-11-01 15:46:00,49.8,43.9,28.82,WNW,287,9.0,15.0,80,0.00,,,0.00,WUHU216DAVISVP2,2013-11-01 19:46:00,
2013-11-01 15:47:00,49.8,43.9,28.82,WNW,295,9.0,15.0,80,0.00,,,0.00,WUHU216DAVISVP2,2013-11-01 19:47:00,
2013-11-01 15:49:00,49.8,44.2,28.82,West,276,10.0,15.0,81,0.00,,,0.00,WUHU216DAVISVP2,2013-11-01 19:49:00,
2013-11-01 15:51:00,49.8,43.9,28.82,West,279,13.0,15.0,80,0.00,,,0.00,WUHU216DAVISVP2,2013-11-01 19:51:00,
2013-11-01 15:52:00,49.8,43.9,28.82,WNW,291,7.0,15.0,80,0.00,,,0.00,WUHU216DAVISVP2,2013-11-01 19:52:00,
2013-11-01 15:54:00,49.9,44.3,28.82,West,280,12.0,15.0,81,0.00,,,0.00,WUHU216DAVISVP2,2013-11-01 19:54:00,
2013-11-01 15:55:00,49.9,44.3,28.82,WNW,289,12.0,15.0,81,0.00,,,0.00,WUHU216DAVISVP2,2013-11-01 19:55:00,
2013-11-01 15:56:00,49.9,44.0,28.82,NW,305,13.0,16.0,80,0.00,,,0.00,WUHU216DAVISVP2,2013-11-01 19:56:00,
2013-11-01 15:57:00,49.8,43.9,28.82,WNW,283,11.0,16.0,80,0.00,,,0.00,WUHU216DAVISVP2,2013-11-01 19:57:00,
2013-11-01 15:59:00,49.9,44.3,28.82,WNW,298,9.0,16.0,81,0.00,,,0.00,WUHU216DAVISVP2,2013-11-01 19:59:00,
2013-11-01 16:00:00,49.9,44.3,28.82,NW,307,3.0,16.0,81,0.00,,,0.00,WUHU216DAVISVP2,2013-11-01 20:00:00,
2013-11-01 16:01:00,49.8,44.2,28.82,WNW,302,11.0,16.0,81,0.00,,,0.00,WUHU216DAVISVP2,2013-11-01 20:01:00,
2013-11-01 16:02:00,49.9,44.3,28.82,WNW,287,8.0,16.0,81,0.00,,,0.00,WUHU216DAVISVP2,2013-11-01 20:02:00,
2013-11-01 16:04:00,49.8,44.2,28.82,WNW,294,8.0,16.0,81,0.00,,,0.00,WUHU216DAVISVP2,2013-11-01 20:04:00,
2013-11-01 16:05:00,49.9,44.3,28.82,WNW,283,4.0,16.0,81,0.00,,,0.00,WUHU216DAVISVP2,2013-11-01 20:05:00,
2013-11-01 16:06:00,49.9,44.3,28.82,WNW,288,2.0,16.0,81,0.00,,,0.00,WUHU216DAVISVP2,2013-11-01 20:06:00,
2013-11-01 16:07:00,49.9,44.3,28.82,WNW,288,5.0,16.0,81,0.00,,,0.00,WUHU216DAVISVP2,2013-11-01 20:07:00,
2013-11-01 16:08:00,49.9,44.3,28.82,WNW,295,9.0,16.0,81,0.00,,,0.00,WUHU216DAVISVP2,2013-11-01 20:08:00,
2013-11-01 16:09:00,50.0,44.7,28.82,WNW,296,4.0,16.0,82,0.00,,,0.00,WUHU216DAVISVP2,2013-11-01 20:09:00,
2013-11-01 16:10:00,50.0,44.7,28.83,WNW,284,7.0,16.0,82,0.00,,,0.00,WUHU216DAVISVP2,2013-11-01 20:10:00,
2013-11-01 16:12:00,50.0,44.7,28.83,WNW,283,10.0,16.0,82,0.00,,,0.00,WUHU216DAVISVP2,2013-11-01 20:12:00,
2013-11-01 16:13:00,50.0,44.7,28.83,NNW,332,6.0,16.0,82,0.00,,,0.00,WUHU216DAVISVP2,2013-11-01 20:13:00,
2013-11-01 16:15:00,49.9,44.6,28.82,WNW,303,10.0,14.0,82,0.00,,,0.00,WUHU216DAVISVP2,2013-11-01 20:15:00,
2013-11-01 16:16:00,49.9,44.3,28.82,WNW,300,9.0,14.0,81,0.00,,,0.00,WUHU216DAVISVP2,2013-11-01 20:16:00,
2013-11-01 16:17:00,49.9,44.3,28.83,WNW,298,8.0,13.0,81,0.00,,,0.00,WUHU216DAVISVP2,2013-11-01 20:17:00,
2013-11-01 16:18:00,49.9,44.3,28.82,NW,306,4.0,13.0,81,0.00,,,0.00,WUHU216DAVISVP2,2013-11-01 20:18:00,
2013-11-01 16:21:00,49.8,43.9,28.82,WNW,301,15.0,16.0,80,0.00,,,0.00,WUHU216DAVISVP2,2013-11-01 20:21:00,
2013-11-01 16:22:00,49.8,43.5,28.82,NW,305,12.0,18.0,79,0.00,,,0.00,WUHU216DAVISVP2,2013-11-01 20:22:00,
2013-11-01 16:23:00,49.8,43.5,28.82,NW,308,12.0,18.0,79,0.00,,,0.00,WUHU216DAVISVP2,2013-11-01 20:23:00,
2013-11-01 16:26:00,49.8,43.3,28.83,WNW,287,8.0,18.0,78,0.00,,,0.00,WUHU216DAVISVP2,2013-11-01 20:26:00,
2013-11-01 16:27:00,49.8,43.3,28.83,WNW,302,11.0,18.0,78,0.00,,,0.00,WUHU216DAVISVP2,2013-11-01 20:27:00,
2013-11-01 16:28:00,49.8,43.3,28.83,NW,312,9.0,18.0,78,0.00,,,0.00,WUHU216DAVISVP2,2013-11-01 20:28:00,
2013-11-01 16:31:00,49.8,42.5,28.83,NW,310,8.0,18.0,76,0.00,,,0.00,WUHU216DAVISVP2,2013-11-01 20:31:00,
2013-11-01 16:32:00,49.8,42.5,28.83,WNW,296,10.0,18.0,76,0.00,,,0.00,WUHU216DAVISVP2,2013-11-01 20:32:00,
2013-11-01 16:33:00,49.8,42.5,28.83,NW,304,8.0,18.0,76,0.00,,,0.00,WUHU216DAVISVP2,2013-11-01 20:33:00,
2013-11-01 16:34:00,49.7,42.5,28.83,WNW,293,10.0,18.0,76,0.00,,,0.00,WUHU216DAVISVP2,2013-11-01 20:34:00,
2013-11-01 16:37:00,49.7,42.2,28.83,WNW,287,9.0,18.0,75,0.00,,,0.00,WUHU216DAVISVP2,2013-11-01 20:37:00,
2013-11-01 16:38:00,49.7,42.5,28.83,WNW,285,8.0,18.0,76,0.00,,,0.00,WUHU216DAVISVP2,2013-11-01 20:38:00,
2013-11-01 16:39:00,49.7,42.5,28.83,WNW,302,10.0,18.0,76,0.00,,,0.00,WUHU216DAVISVP2,2013-11-01 20:39:00,
2013-11-01 16:42:00,49.7,42.5,28.83,WNW,293,8.0,16.0,76,0.00,,,0.00,WUHU216DAVISVP2,2013-11-01 20:42:00,
2013-11-01 16:43:00,49.7,42.5,28.83,WNW,292,8.0,16.0,76,0.00,,,0.00,WUHU216DAVISVP2,2013-11-01 20:43:00,
2013-11-01 16:44:00,49.7,42.5,28.83,WNW,284,10.0,16.0,76,0.00,,,0.00,WUHU216DAVISVP2,2013-11-01 20:44:00,
2013-11-01 16:47:00,49.7,42.5,28.83,West,272,9.0,16.0,76,0.00,,,0.00,WUHU216DAVISVP2,2013-11-01 20:47:00,
2013-11-01 16:48:00,49.7,42.8,28.83,West,277,9.0,16.0,77,0.00,,,0.00,WUHU216DAVISVP2,2013-11-01 20:48:00,
2013-11-01 16:49:00,49.7,42.8,28.83,West,262,11.0,16.0,77,0.00,,,0.00,WUHU216DAVISVP2,2013-11-01 20:49:00,
2013-11-01 16:53:00,49.7,42.8,28.83,West,279,7.0,15.0,77,0.00,,,0.00,WUHU216DAVISVP2,2013-11-01 20:53:00,
2013-11-01 16:55:00,49.7,42.8,28.83,West,281,7.0,15.0,77,0.00,,,0.00,WUHU216DAVISVP2,2013-11-01 20:55:00,
2013-11-01 16:56:00,49.7,42.8,28.83,West,281,9.0,15.0,77,0.00,,,0.00,WUHU216DAVISVP2,2013-11-01 20:56:00,
2013-11-01 16:58:00,49.7,42.8,28.83,West,278,1.0,15.0,77,0.00,,,0.00,WUHU216DAVISVP2,2013-11-01 20:58:00,
2013-11-01 16:59:00,49.7,42.8,28.84,WSW,254,7.0,15.0,77,0.00,,,0.00,WUHU216DAVISVP2,2013-11-01 20:59:00,
2013-11-01 17:00:00,49.7,42.8,28.83,West,270,6.0,15.0,77,0.00,,,0.00,WUHU216DAVISVP2,2013-11-01 21:00:00,
2013-11-01 17:01:00,49.7,42.8,28.83,WNW,285,8.0,15.0,77,0.00,,,0.00,WUHU216DAVISVP2,2013-11-01 21:01:00,
2013-11-01 17:03:00,49.7,42.8,28.83,West,272,6.0,15.0,77,0.00,,,0.00,WUHU216DAVISVP2,2013-11-01 21:03:00,
2013-11-01 17:04:00,49.7,42.8,28.83,WNW,294,7.0,15.0,77,0.00,,,0.00,WUHU216DAVISVP2,2013-11-01 21:04:00,
2013-11-01 17:06:00,49.7,42.8,28.83,WNW,283,7.0,15.0,77,0.00,,,0.00,WUHU216DAVISVP2,2013-11-01 21:06:00,
2013-11-01 17:08:00,49.8,42.9,28.83,WSW,258,8.0,13.0,77,0.00,,,0.00,WUHU216DAVISVP2,2013-11-01 21:08:00,
2013-11-01 17:09:00,49.8,42.6,28.83,WNW,287,5.0,13.0,76,0.00,,,0.00,WUHU216DAVISVP2,2013-11-01 21:09:00,
2013-11-01 17:10:00,49.8,42.9,28.83,West,276,7.0,13.0,77,0.00,,,0.00,WUHU216DAVISVP2,2013-11-01 21:10:00,
2013-11-01 17:11:00,49.8,42.6,28.84,WNW,289,5.0,13.0,76,0.00,,,0.00,WUHU216DAVISVP2,2013-11-01 21:11:00,
2013-11-01 17:13:00,49.9,42.7,28.84,West,276,1.0,13.0,76,0.00,,,0.00,WUHU216DAVISVP2,2013-11-01 21:13:00,
2013-11-01 17:14:00,49.9,42.7,28.84,WNW,297,5.0,13.0,76,0.00,,,0.00,WUHU216DAVISVP2,2013-11-01 21:14:00,
2013-11-01 17:15:00,49.9,42.7,28.84,WNW,299,6.0,13.0,76,0.00,,,0.00,WUHU216DAVISVP2,2013-11-01 21:15:00,
2013-11-01 17:16:00,49.9,42.7,28.84,West,276,0.0,13.0,76,0.00,,,0.00,WUHU216DAVISVP2,2013-11-01 21:16:00,
2013-11-01 17:19:00,49.9,42.7,28.84,WNW,295,5.0,13.0,76,0.00,,,0.00,WUHU216DAVISVP2,2013-11-01 21:19:00,
2013-11-01 17:21:00,49.9,42.7,28.84,West,274,7.0,13.0,76,0.00,,,0.00,WUHU216DAVISVP2,2013-11-01 21:21:00,
2013-11-01 17:24:00,49.9,42.3,28.84,WNW,294,6.0,11.0,75,0.00,,,0.00,WUHU216DAVISVP2,2013-11-01 21:24:00,
2013-11-01 17:26:00,50.0,42.4,28.84,WNW,283,7.0,11.0,75,0.00,,,0.00,WUHU216DAVISVP2,2013-11-01 21:26:00,
2013-11-01 17:27:00,50.0,42.4,28.84,West,271,10.0,11.0,75,0.00,,,0.00,WUHU216DAVISVP2,2013-11-01 21:27:00,
2013-11-01 17:29:00,50.0,42.4,28.84,West,278,8.0,12.0,75,0.00,,,0.00,WUHU216DAVISVP2,2013-11-01 21:29:00,
2013-11-01 17:31:00,50.0,42.0,28.84,West,272,2.0,12.0,74,0.00,,,0.00,WUHU216DAVISVP2,2013-11-01 21:31:00,
2013-11-01 17:32:00,50.0,42.4,28.84,West,266,6.0,12.0,75,0.00,,,0.00,WUHU216DAVISVP2,2013-11-01 21:32:00,
2013-11-01 17:34:00,50.1,42.2,28.84,WNW,288,8.0,14.0,74,0.00,,,0.00,WUHU216DAVISVP2,2013-11-01 21:34:00,
2013-11-01 17:35:00,50.1,42.2,28.84,WNW,293,9.0,14.0,74,0.00,,,0.00,WUHU216DAVISVP2,2013-11-01 21:35:00,
2013-11-01 17:37:00,50.0,42.1,28.84,West,274,5.0,14.0,74,0.00,,,0.00,WUHU216DAVISVP2,2013-11-01 21:37:00,
2013-11-01 17:39:00,50.0,42.1,28.84,West,264,9.0,14.0,74,0.00,,,0.00,WUHU216DAVISVP2,2013-11-01 21:39:00,
2013-11-01 17:40:00,50.0,42.1,28.84,WNW,284,12.0,14.0,74,0.00,,,0.00,WUHU216DAVISVP2,2013-11-01 21:40:00,
2013-11-01 17:42:00,50.0,42.1,28.84,West,281,12.0,14.0,74,0.00,,,0.00,WUHU216DAVISVP2,2013-11-01 21:42:00,
2013-11-01 17:43:00,50.1,42.2,28.84,WSW,257,9.0,15.0,74,0.00,,,0.00,WUHU216DAVISVP2,2013-11-01 21:43:00,
2013-11-01 17:44:00,50.1,42.2,28.84,WNW,297,6.0,15.0,74,0.00,,,0.00,WUHU216DAVISVP2,2013-11-01 21:44:00,
2013-11-01 17:45:00,50.0,42.1,28.84,WNW,300,7.0,15.0,74,0.00,,,0.00,WUHU216DAVISVP2,2013-11-01 21:45:00,
2013-11-01 17:47:00,50.0,42.1,28.84,West,260,8.0,15.0,74,0.00,,,0.00,WUHU216DAVISVP2,2013-11-01 21:47:00,
2013-11-01 17:48:00,50.0,42.1,28.84,WNW,287,9.0,15.0,74,0.00,,,0.00,WUHU216DAVISVP2,2013-11-01 21:48:00,
2013-11-01 17:49:00,50.0,42.1,28.84,West,276,11.0,15.0,74,0.00,,,0.00,WUHU216DAVISVP2,2013-11-01 21:49:00,
2013-11-01 17:50:00,50.0,42.1,28.84,WSW,258,6.0,15.0,74,0.00,,,0.00,WUHU216DAVISVP2,2013-11-01 21:50:00,
2013-11-01 17:53:00,50.0,41.8,28.84,WNW,297,9.0,15.0,73,0.00,,,0.00,WUHU216DAVISVP2,2013-11-01 21:53:00,
2013-11-01 17:54:00,50.0,42.8,28.84,WNW,283,5.0,15.0,76,0.00,,,0.00,WUHU216DAVISVP2,2013-11-01 21:54:00,
2013-11-01 17:55:00,50.0,42.1,28.84,WNW,283,2.0,15.0,74,0.00,,,0.00,WUHU216DAVISVP2,2013-11-01 21:55:00,
2013-11-01 17:56:00,50.0,42.1,28.84,WNW,285,4.0,15.0,74,0.00,,,0.00,WUHU216DAVISVP2,2013-11-01 21:56:00,
2013-11-01 17:58:00,50.0,42.1,28.84,West,270,7.0,15.0,74,0.00,,,0.00,WUHU216DAVISVP2,2013-11-01 21:58:00,
2013-11-01 17:59:00,50.0,41.8,28.84,WNW,290,5.0,15.0,73,0.00,,,0.00,WUHU216DAVISVP2,2013-11-01 21:59:00,
2013-11-01 18:00:00,50.0,42.1,28.84,WNW,290,1.0,15.0,74,0.00,,,0.00,WUHU216DAVISVP2,2013-11-01 22:00:00,
2013-11-01 18:01:00,50.0,42.1,28.84,WNW,291,7.0,13.0,74,0.00,,,0.00,WUHU216DAVISVP2,2013-11-01 22:01:00,
2013-11-01 18:03:00,50.0,42.1,28.84,WNW,288,10.0,13.0,74,0.00,,,0.00,WUHU216DAVISVP2,2013-11-01 22:03:00,
2013-11-01 18:04:00,49.9,42.0,28.84,WSW,258,7.0,13.0,74,0.00,,,0.00,WUHU216DAVISVP2,2013-11-01 22:04:00,
2013-11-01 18:05:00,50.0,42.1,28.85,WNW,293,10.0,13.0,74,0.00,,,0.00,WUHU216DAVISVP2,2013-11-01 22:05:00,
2013-11-01 18:06:00,49.9,42.0,28.84,West,275,8.0,13.0,74,0.00,,,0.00,WUHU216DAVISVP2,2013-11-01 22:06:00,
2013-11-01 18:08:00,49.9,42.0,28.84,West,271,7.0,13.0,74,0.00,,,0.00,WUHU216DAVISVP2,2013-11-01 22:08:00,
2013-11-01 18:09:00,49.9,42.0,28.84,West,272,10.0,13.0,74,0.00,,,0.00,WUHU216DAVISVP2,2013-11-01 22:09:00,
2013-11-01 18:10:00,49.9,42.0,28.84,West,267,1.0,13.0,74,0.00,,,0.00,WUHU216DAVISVP2,2013-11-01 22:10:00,
2013-11-01 18:12:00,49.9,42.0,28.85,West,275,6.0,13.0,74,0.00,,,0.00,WUHU216DAVISVP2,2013-11-01 22:12:00,
2013-11-01 18:14:00,49.9,42.0,28.84,WSW,249,9.0,13.0,74,0.00,,,0.00,WUHU216DAVISVP2,2013-11-01 22:14:00,
2013-11-01 18:15:00,49.9,42.0,28.85,West,270,4.0,13.0,74,0.00,,,0.00,WUHU216DAVISVP2,2013-11-01 22:15:00,
2013-11-01 18:17:00,49.9,42.4,28.85,WNW,285,8.0,13.0,75,0.00,,,0.00,WUHU216DAVISVP2,2013-11-01 22:17:00,
2013-11-01 18:19:00,49.9,42.0,28.85,West,266,6.0,13.0,74,0.00,,,0.00,WUHU216DAVISVP2,2013-11-01 22:19:00,
2013-11-01 18:20:00,49.9,42.0,28.85,West,271,6.0,13.0,74,0.00,,,0.00,WUHU216DAVISVP2,2013-11-01 22:20:00,
2013-11-01 18:21:00,49.9,42.0,28.85,West,269,10.0,13.0,74,0.00,,,0.00,WUHU216DAVISVP2,2013-11-01 22:21:00,
2013-11-01 18:22:00,49.9,42.0,28.85,West,270,7.0,13.0,74,0.00,,,0.00,WUHU216DAVISVP2,2013-11-01 22:22:00,
2013-11-01 18:24:00,49.9,42.0,28.85,West,278,5.0,11.0,74,0.00,,,0.00,WUHU216DAVISVP2,2013-11-01 22:24:00,
2013-11-01 18:25:00,49.9,42.4,28.85,WNW,285,7.0,11.0,75,0.00,,,0.00,WUHU216DAVISVP2,2013-11-01 22:25:00,
2013-11-01 18:27:00,49.9,42.4,28.85,West,270,1.0,12.0,75,0.00,,,0.00,WUHU216DAVISVP2,2013-11-01 22:27:00,
2013-11-01 18:29:00,49.9,42.0,28.85,West,279,6.0,12.0,74,0.00,,,0.00,WUHU216DAVISVP2,2013-11-01 22:29:00,
2013-11-01 18:30:00,49.8,41.9,28.85,West,278,11.0,12.0,74,0.00,,,0.00,WUHU216DAVISVP2,2013-11-01 22:30:00,
2013-11-01 18:32:00,49.8,42.3,28.85,West,263,5.0,12.0,75,0.00,,,0.00,WUHU216DAVISVP2,2013-11-01 22:32:00,
2013-11-01 18:33:00,49.9,42.4,28.85,West,263,1.0,12.0,75,0.00,,,0.00,WUHU216DAVISVP2,2013-11-01 22:33:00,
2013-11-01 18:35:00,49.8,42.3,28.85,West,262,4.0,12.0,75,0.00,,,0.00,WUHU216DAVISVP2,2013-11-01 22:35:00,
2013-11-01 18:36:00,49.8,42.3,28.85,West,268,10.0,12.0,75,0.00,,,0.00,WUHU216DAVISVP2,2013-11-01 22:36:00,
2013-11-01 18:38:00,49.8,42.2,28.85,WNW,285,6.0,12.0,75,0.00,,,0.00,WUHU216DAVISVP2,2013-11-01 22:38:00,
2013-11-01 18:40:00,49.8,42.2,28.85,West,272,7.0,12.0,75,0.00,,,0.00,WUHU216DAVISVP2,2013-11-01 22:40:00,
2013-11-01 18:41:00,49.8,42.2,28.85,West,275,4.0,12.0,75,0.00,,,0.00,WUHU216DAVISVP2,2013-11-01 22:41:00,
2013-11-01 18:43:00,49.8,42.2,28.85,WSW,254,6.0,12.0,75,0.00,,,0.00,WUHU216DAVISVP2,2013-11-01 22:43:00,
2013-11-01 18:45:00,49.8,42.3,28.85,West,270,4.0,12.0,75,0.00,,,0.00,WUHU216DAVISVP2,2013-11-01 22:45:00,
2013-11-01 18:46:00,49.8,42.3,28.85,West,272,6.0,12.0,75,0.00,,,0.00,WUHU216DAVISVP2,2013-11-01 22:46:00,
2013-11-01 18:47:00,49.8,42.3,28.86,West,272,5.0,12.0,75,0.00,,,0.00,WUHU216DAVISVP2,2013-11-01 22:47:00,
2013-11-01 18:48:00,49.8,42.3,28.86,West,274,4.0,12.0,75,0.00,,,0.00,WUHU216DAVISVP2,2013-11-01 22:48:00,
2013-11-01 18:50:00,49.8,42.3,28.85,West,273,7.0,11.0,75,0.00,,,0.00,WUHU216DAVISVP2,2013-11-01 22:50:00,
2013-11-01 18:51:00,49.8,42.3,28.85,West,266,9.0,11.0,75,0.00,,,0.00,WUHU216DAVISVP2,2013-11-01 22:51:00,
2013-11-01 18:53:00,49.8,42.3,28.86,WNW,285,2.0,11.0,75,0.00,,,0.00,WUHU216DAVISVP2,2013-11-01 22:53:00,
2013-11-01 18:54:00,49.7,42.2,28.86,West,276,9.0,11.0,75,0.00,,,0.00,WUHU216DAVISVP2,2013-11-01 22:54:00,
2013-11-01 18:55:00,49.7,42.2,28.86,WSW,253,8.0,11.0,75,0.00,,,0.00,WUHU216DAVISVP2,2013-11-01 22:55:00,
2013-11-01 18:56:00,49.7,42.2,28.86,WNW,295,2.0,12.0,75,0.00,,,0.00,WUHU216DAVISVP2,2013-11-01 22:56:00,
2013-11-01 18:57:00,49.8,42.3,28.86,West,263,4.0,12.0,75,0.00,,,0.00,WUHU216DAVISVP2,2013-11-01 22:57:00,
2013-11-01 18:58:00,49.7,42.2,28.86,West,264,5.0,12.0,75,0.00,,,0.00,WUHU216DAVISVP2,2013-11-01 22:58:00,
2013-11-01 18:59:00,49.7,42.2,28.86,West,262,3.0,12.0,75,0.00,,,0.00,WUHU216DAVISVP2,2013-11-01 22:59:00,
2013-11-01 19:00:00,49.8,42.3,28.86,West,259,7.0,12.0,75,0.00,,,0.00,WUHU216DAVISVP2,2013-11-01 23:00:00,
2013-11-01 19:01:00,49.7,42.2,28.86,West,259,2.0,12.0,75,0.00,,,0.00,WUHU216DAVISVP2,2013-11-01 23:01:00,
2013-11-01 19:02:00,49.7,42.2,28.86,West,259,7.0,12.0,75,0.00,,,0.00,WUHU216DAVISVP2,2013-11-01 23:02:00,
2013-11-01 19:03:00,49.7,42.2,28.86,West,279,2.0,12.0,75,0.00,,,0.00,WUHU216DAVISVP2,2013-11-01 23:03:00,
2013-11-01 19:04:00,49.7,42.2,28.86,WNW,294,5.0,12.0,75,0.00,,,0.00,WUHU216DAVISVP2,2013-11-01 23:04:00,
2013-11-01 19:05:00,49.7,42.2,28.86,WNW,294,5.0,12.0,75,0.00,,,0.00,WUHU216DAVISVP2,2013-11-01 23:05:00,
2013-11-01 19:06:00,49.7,42.2,28.86,WNW,289,6.0,12.0,75,0.00,,,0.00,WUHU216DAVISVP2,2013-11-01 23:06:00,
2013-11-01 19:07:00,49.7,42.2,28.86,WNW,285,6.0,12.0,75,0.00,,,0.00,WUHU216DAVISVP2,2013-11-01 23:07:00,
2013-11-01 19:09:00,49.7,42.2,28.86,West,264,6.0,12.0,75,0.00,,,0.00,WUHU216DAVISVP2,2013-11-01 23:09:00,
2013-11-01 19:10:00,49.7,42.2,28.86,WNW,293,7.0,12.0,75,0.00,,,0.00,WUHU216DAVISVP2,2013-11-01 23:10:00,
2013-11-01 19:11:00,49.7,42.2,28.86,West,274,6.0,12.0,75,0.00,,,0.00,WUHU216DAVISVP2,2013-11-01 23:11:00,
2013-11-01 19:13:00,49.7,42.2,28.87,West,274,1.0,12.0,75,0.00,,,0.00,WUHU216DAVISVP2,2013-11-01 23:13:00,
2013-11-01 19:14:00,49.7,42.2,28.87,West,274,4.0,10.0,75,0.00,,,0.00,WUHU216DAVISVP2,2013-11-01 23:14:00,
2013-11-01 19:15:00,49.7,42.2,28.87,West,277,9.0,10.0,75,0.00,,,0.00,WUHU216DAVISVP2,2013-11-01 23:15:00,
2013-11-01 19:16:00,49.6,42.1,28.87,WNW,297,6.0,10.0,75,0.00,,,0.00,WUHU216DAVISVP2,2013-11-01 23:16:00,
2013-11-01 19:18:00,49.6,42.1,28.87,WNW,290,1.0,10.0,75,0.00,,,0.00,WUHU216DAVISVP2,2013-11-01 23:18:00,
2013-11-01 19:19:00,49.6,42.1,28.87,WNW,290,1.0,10.0,75,0.00,,,0.00,WUHU216DAVISVP2,2013-11-01 23:19:00,
2013-11-01 19:20:00,49.6,42.1,28.87,WNW,290,4.0,10.0,75,0.00,,,0.00,WUHU216DAVISVP2,2013-11-01 23:20:00,
2013-11-01 19:21:00,49.6,42.1,28.87,WNW,284,5.0,11.0,75,0.00,,,0.00,WUHU216DAVISVP2,2013-11-01 23:21:00,
2013-11-01 19:24:00,49.6,42.1,28.87,WNW,286,11.0,12.0,75,0.00,,,0.00,WUHU216DAVISVP2,2013-11-01 23:24:00,
2013-11-01 19:25:00,49.6,42.1,28.87,West,278,7.0,12.0,75,0.00,,,0.00,WUHU216DAVISVP2,2013-11-01 23:25:00,
2013-11-01 19:26:00,49.6,42.1,28.87,West,272,5.0,12.0,75,0.00,,,0.00,WUHU216DAVISVP2,2013-11-01 23:26:00,
2013-11-01 19:29:00,49.6,42.1,28.87,WNW,291,7.0,12.0,75,0.00,,,0.00,WUHU216DAVISVP2,2013-11-01 23:29:00,
2013-11-01 19:30:00,49.6,42.1,28.87,West,278,5.0,12.0,75,0.00,,,0.00,WUHU216DAVISVP2,2013-11-01 23:30:00,
2013-11-01 19:31:00,49.6,42.1,28.87,West,273,8.0,12.0,75,0.00,,,0.00,WUHU216DAVISVP2,2013-11-01 23:31:00,
2013-11-01 19:34:00,49.6,42.1,28.87,West,269,9.0,12.0,75,0.00,,,0.00,WUHU216DAVISVP2,2013-11-01 23:34:00,
2013-11-01 19:35:00,49.6,42.1,28.87,WNW,295,6.0,12.0,75,0.00,,,0.00,WUHU216DAVISVP2,2013-11-01 23:35:00,
2013-11-01 19:36:00,49.6,42.1,28.87,West,278,9.0,12.0,75,0.00,,,0.00,WUHU216DAVISVP2,2013-11-01 23:36:00,
2013-11-01 19:37:00,49.6,42.1,28.87,West,272,7.0,12.0,75,0.00,,,0.00,WUHU216DAVISVP2,2013-11-01 23:37:00,
2013-11-01 19:40:00,49.6,42.1,28.87,West,264,4.0,12.0,75,0.00,,,0.00,WUHU216DAVISVP2,2013-11-01 23:40:00,
2013-11-01 19:41:00,49.6,42.1,28.87,WNW,285,7.0,12.0,75,0.00,,,0.00,WUHU216DAVISVP2,2013-11-01 23:41:00,
2013-11-01 19:42:00,49.6,42.1,28.88,West,262,7.0,12.0,75,0.00,,,0.00,WUHU216DAVISVP2,2013-11-01 23:42:00,
2013-11-01 19:46:00,49.6,42.1,28.88,West,273,7.0,12.0,75,0.00,,,0.00,WUHU216DAVISVP2,2013-11-01 23:46:00,
2013-11-01 19:47:00,49.5,42.0,28.88,WNW,287,5.0,12.0,75,0.00,,,0.00,WUHU216DAVISVP2,2013-11-01 23:47:00,
2013-11-01 19:51:00,49.5,42.3,28.88,West,268,7.0,12.0,76,0.00,,,0.00,WUHU216DAVISVP2,2013-11-01 23:51:00,
2013-11-01 19:52:00,49.5,42.3,28.88,West,260,4.0,12.0,76,0.00,,,0.00,WUHU216DAVISVP2,2013-11-01 23:52:00,
2013-11-01 19:53:00,49.5,42.3,28.88,WNW,297,10.0,12.0,76,0.00,,,0.00,WUHU216DAVISVP2,2013-11-01 23:53:00,
2013-11-01 19:56:00,49.4,42.2,28.88,WNW,289,9.0,11.0,76,0.00,,,0.00,WUHU216DAVISVP2,2013-11-01 23:56:00,
2013-11-01 19:57:00,49.4,42.2,28.88,West,260,9.0,12.0,76,0.00,,,0.00,WUHU216DAVISVP2,2013-11-01 23:57:00,
2013-11-01 19:58:00,49.4,42.2,28.88,WNW,292,6.0,12.0,76,0.00,,,0.00,WUHU216DAVISVP2,2013-11-01 23:58:00,
2013-11-01 20:01:00,49.4,42.2,28.88,WNW,285,5.0,12.0,76,0.00,,,0.00,WUHU216DAVISVP2,2013-11-02 00:01:00,
2013-11-01 20:02:00,49.4,42.2,28.88,WNW,285,5.0,12.0,76,0.00,,,0.00,WUHU216DAVISVP2,2013-11-02 00:02:00,
2013-11-01 20:04:00,49.4,42.2,28.88,WNW,288,7.0,12.0,76,0.00,,,0.00,WUHU216DAVISVP2,2013-11-02 00:04:00,
2013-11-01 20:07:00,49.3,42.5,28.88,WNW,293,13.0,13.0,77,0.00,,,0.00,WUHU216DAVISVP2,2013-11-02 00:07:00,
2013-11-01 20:09:00,49.3,42.5,28.88,WNW,297,11.0,14.0,77,0.00,,,0.00,WUHU216DAVISVP2,2013-11-02 00:09:00,
2013-11-01 20:12:00,49.3,42.5,28.88,West,274,10.0,14.0,77,0.00,,,0.00,WUHU216DAVISVP2,2013-11-02 00:12:00,
2013-11-01 20:13:00,49.3,42.5,28.88,WNW,285,5.0,14.0,77,0.00,,,0.00,WUHU216DAVISVP2,2013-11-02 00:13:00,
2013-11-01 20:14:00,49.3,42.5,28.88,West,269,7.0,14.0,77,0.00,,,0.00,WUHU216DAVISVP2,2013-11-02 00:14:00,
2013-11-01 20:17:00,49.2,42.4,28.88,West,269,8.0,14.0,77,0.00,,,0.00,WUHU216DAVISVP2,2013-11-02 00:17:00,
2013-11-01 20:18:00,49.2,42.7,28.88,West,278,11.0,14.0,78,0.00,,,0.00,WUHU216DAVISVP2,2013-11-02 00:18:00,
2013-11-01 20:19:00,49.2,42.4,28.88,West,278,6.0,14.0,77,0.00,,,0.00,WUHU216DAVISVP2,2013-11-02 00:19:00,
2013-11-01 20:22:00,49.2,42.7,28.88,West,274,2.0,14.0,78,0.00,,,0.00,WUHU216DAVISVP2,2013-11-02 00:22:00,
2013-11-01 20:23:00,49.2,42.7,28.88,West,274,2.0,14.0,78,0.00,,,0.00,WUHU216DAVISVP2,2013-11-02 00:23:00,
2013-11-01 20:24:00,49.2,42.7,28.88,West,279,5.0,14.0,78,0.00,,,0.00,WUHU216DAVISVP2,2013-11-02 00:24:00,
2013-11-01 20:27:00,49.2,42.7,28.88,West,279,7.0,14.0,78,0.00,,,0.00,WUHU216DAVISVP2,2013-11-02 00:27:00,
2013-11-01 20:28:00,49.2,42.7,28.88,West,264,6.0,14.0,78,0.00,,,0.00,WUHU216DAVISVP2,2013-11-02 00:28:00,
2013-11-01 20:29:00,49.2,42.7,28.88,West,264,6.0,14.0,78,0.00,,,0.00,WUHU216DAVISVP2,2013-11-02 00:29:00,
2013-11-01 20:32:00,49.1,42.6,28.88,West,266,8.0,14.0,78,0.00,,,0.00,WUHU216DAVISVP2,2013-11-02 00:32:00,
2013-11-01 20:33:00,49.1,42.6,28.88,West,261,5.0,14.0,78,0.00,,,0.00,WUHU216DAVISVP2,2013-11-02 00:33:00,
2013-11-01 20:34:00,49.1,42.6,28.88,West,272,9.0,14.0,78,0.00,,,0.00,WUHU216DAVISVP2,2013-11-02 00:34:00,
2013-11-01 20:38:00,49.1,42.6,28.88,WNW,289,6.0,11.0,78,0.00,,,0.00,WUHU216DAVISVP2,2013-11-02 00:38:00,
2013-11-01 20:39:00,49.0,42.5,28.89,West,276,7.0,11.0,78,0.00,,,0.00,WUHU216DAVISVP2,2013-11-02 00:39:00,
2013-11-01 20:40:00,49.0,42.5,28.88,WSW,241,8.0,11.0,78,0.00,,,0.00,WUHU216DAVISVP2,2013-11-02 00:40:00,
2013-11-01 20:43:00,49.0,42.8,28.88,West,263,2.0,12.0,79,0.00,,,0.00,WUHU216DAVISVP2,2013-11-02 00:43:00,
2013-11-01 20:44:00,49.0,42.8,28.88,NW,314,7.0,12.0,79,0.00,,,0.00,WUHU216DAVISVP2,2013-11-02 00:44:00,
2013-11-01 20:45:00,49.0,42.8,28.88,WNW,289,10.0,12.0,79,0.00,,,0.00,WUHU216DAVISVP2,2013-11-02 00:45:00,
2013-11-01 20:48:00,48.9,42.7,28.88,West,278,9.0,12.0,79,0.00,,,0.00,WUHU216DAVISVP2,2013-11-02 00:48:00,
2013-11-01 20:49:00,48.9,42.7,28.88,West,277,5.0,12.0,79,0.00,,,0.00,WUHU216DAVISVP2,2013-11-02 00:49:00,
2013-11-01 20:50:00,48.9,42.7,28.88,West,262,7.0,12.0,79,0.00,,,0.00,WUHU216DAVISVP2,2013-11-02 00:50:00,
2013-11-01 20:51:00,48.9,42.7,28.88,West,280,8.0,12.0,79,0.00,,,0.00,WUHU216DAVISVP2,2013-11-02 00:51:00,
2013-11-01 20:53:00,48.9,42.7,28.88,WNW,282,11.0,12.0,79,0.00,,,0.00,WUHU216DAVISVP2,2013-11-02 00:53:00,
2013-11-01 20:54:00,48.9,42.7,28.88,WNW,291,5.0,12.0,79,0.00,,,0.00,WUHU216DAVISVP2,2013-11-02 00:54:00,
2013-11-01 20:55:00,48.8,42.6,28.88,West,268,2.0,12.0,79,0.00,,,0.00,WUHU216DAVISVP2,2013-11-02 00:55:00,
2013-11-01 20:57:00,48.8,42.6,28.88,West,278,7.0,12.0,79,0.00,,,0.00,WUHU216DAVISVP2,2013-11-02 00:57:00,
2013-11-01 20:58:00,48.8,42.6,28.88,West,278,5.0,12.0,79,0.00,,,0.00,WUHU216DAVISVP2,2013-11-02 00:58:00,
2013-11-01 20:59:00,48.8,42.6,28.88,West,278,4.0,12.0,79,0.00,,,0.00,WUHU216DAVISVP2,2013-11-02 00:59:00,
2013-11-01 21:00:00,48.8,42.6,28.88,West,278,6.0,12.0,79,0.00,,,0.00,WUHU216DAVISVP2,2013-11-02 01:00:00,
2013-11-01 21:02:00,48.8,42.6,28.89,WSW,258,6.0,12.0,79,0.00,,,0.00,WUHU216DAVISVP2,2013-11-02 01:02:00,
2013-11-01 21:04:00,48.8,42.6,28.89,West,278,8.0,12.0,79,0.00,,,0.00,WUHU216DAVISVP2,2013-11-02 01:04:00,
2013-11-01 21:05:00,48.8,42.6,28.89,West,259,4.0,12.0,79,0.00,,,0.00,WUHU216DAVISVP2,2013-11-02 01:05:00,
2013-11-01 21:07:00,48.7,42.8,28.89,West,271,8.0,12.0,80,0.00,,,0.00,WUHU216DAVISVP2,2013-11-02 01:07:00,
2013-11-01 21:09:00,48.7,42.8,28.89,West,267,11.0,12.0,80,0.00,,,0.00,WUHU216DAVISVP2,2013-11-02 01:09:00,
2013-11-01 21:10:00,48.7,42.8,28.89,WNW,286,6.0,12.0,80,0.00,,,0.00,WUHU216DAVISVP2,2013-11-02 01:10:00,
2013-11-01 21:12:00,48.7,42.8,28.89,WSW,252,5.0,12.0,80,0.00,,,0.00,WUHU216DAVISVP2,2013-11-02 01:12:00,
2013-11-01 21:14:00,48.7,42.8,28.89,WNW,283,8.0,12.0,80,0.00,,,0.00,WUHU216DAVISVP2,2013-11-02 01:14:00,
2013-11-01 21:15:00,48.7,42.8,28.89,West,264,7.0,12.0,80,0.00,,,0.00,WUHU216DAVISVP2,2013-11-02 01:15:00,
2013-11-01 21:18:00,48.7,42.8,28.89,WNW,295,5.0,12.0,80,0.00,,,0.00,WUHU216DAVISVP2,2013-11-02 01:18:00,
2013-11-01 21:20:00,48.6,42.7,28.89,West,261,8.0,15.0,80,0.00,,,0.00,WUHU216DAVISVP2,2013-11-02 01:20:00,
2013-11-01 21:23:00,48.6,42.7,28.89,West,276,6.0,15.0,80,0.00,,,0.00,WUHU216DAVISVP2,2013-11-02 01:23:00,
2013-11-01 21:25:00,48.6,42.7,28.89,West,270,7.0,15.0,80,0.00,,,0.00,WUHU216DAVISVP2,2013-11-02 01:25:00,
2013-11-01 21:26:00,48.6,42.7,28.89,West,264,6.0,15.0,80,0.00,,,0.00,WUHU216DAVISVP2,2013-11-02 01:26:00,
2013-11-01 21:28:00,48.6,42.7,28.89,West,272,8.0,15.0,80,0.00,,,0.00,WUHU216DAVISVP2,2013-11-02 01:28:00,
2013-11-01 21:30:00,48.6,42.7,28.89,West,280,9.0,15.0,80,0.00,,,0.00,WUHU216DAVISVP2,2013-11-02 01:30:00,
2013-11-01 21:31:00,48.6,42.7,28.89,West,276,8.0,15.0,80,0.00,,,0.00,WUHU216DAVISVP2,2013-11-02 01:31:00,
2013-11-01 21:33:00,48.6,42.7,28.89,WNW,284,7.0,15.0,80,0.00,,,0.00,WUHU216DAVISVP2,2013-11-02 01:33:00,
2013-11-01 21:35:00,48.5,43.0,28.89,West,274,9.0,15.0,81,0.00,,,0.00,WUHU216DAVISVP2,2013-11-02 01:35:00,
2013-11-01 21:36:00,48.5,43.0,28.89,West,273,8.0,15.0,81,0.00,,,0.00,WUHU216DAVISVP2,2013-11-02 01:36:00,
2013-11-01 21:39:00,48.5,43.0,28.89,West,266,8.0,15.0,81,0.00,,,0.00,WUHU216DAVISVP2,2013-11-02 01:39:00,
2013-11-01 21:40:00,48.5,43.0,28.89,West,270,9.0,15.0,81,0.00,,,0.00,WUHU216DAVISVP2,2013-11-02 01:40:00,
2013-11-01 21:41:00,48.5,43.0,28.89,WNW,285,5.0,18.0,81,0.00,,,0.00,WUHU216DAVISVP2,2013-11-02 01:41:00,
2013-11-01 21:45:00,48.4,42.9,28.89,West,274,8.0,19.0,81,0.00,,,0.00,WUHU216DAVISVP2,2013-11-02 01:45:00,
2013-11-01 21:47:00,48.4,42.9,28.89,NW,310,10.0,19.0,81,0.00,,,0.00,WUHU216DAVISVP2,2013-11-02 01:47:00,
2013-11-01 21:50:00,48.3,43.1,28.89,West,266,8.0,19.0,82,0.00,,,0.00,WUHU216DAVISVP2,2013-11-02 01:50:00,
2013-11-01 21:51:00,48.3,43.1,28.89,WSW,258,13.0,19.0,82,0.00,,,0.00,WUHU216DAVISVP2,2013-11-02 01:51:00,
2013-11-01 21:52:00,48.3,43.1,28.89,West,269,13.0,19.0,82,0.00,,,0.00,WUHU216DAVISVP2,2013-11-02 01:52:00,
2013-11-01 21:55:00,48.2,43.0,28.89,West,260,13.0,19.0,82,0.00,,,0.00,WUHU216DAVISVP2,2013-11-02 01:55:00,
2013-11-01 21:56:00,48.1,42.9,28.89,WNW,295,11.0,19.0,82,0.00,,,0.00,WUHU216DAVISVP2,2013-11-02 01:56:00,
2013-11-01 21:57:00,48.1,43.2,28.89,WSW,250,10.0,19.0,83,0.00,,,0.00,WUHU216DAVISVP2,2013-11-02 01:57:00,
2013-11-01 22:00:00,48.0,43.1,28.89,West,278,12.0,19.0,83,0.00,,,0.00,WUHU216DAVISVP2,2013-11-02 02:00:00,
2013-11-01 22:01:00,47.9,43.0,28.89,WNW,297,8.0,19.0,83,0.00,,,0.00,WUHU216DAVISVP2,2013-11-02 02:01:00,
2013-11-01 22:02:00,47.9,43.3,28.89,West,270,9.0,18.0,84,0.00,,,0.00,WUHU216DAVISVP2,2013-11-02 02:02:00,
2013-11-01 22:03:00,47.9,43.3,28.89,West,269,7.0,18.0,84,0.00,,,0.00,WUHU216DAVISVP2,2013-11-02 02:03:00,
2013-11-01 22:05:00,47.9,43.3,28.89,West,276,10.0,18.0,84,0.00,,,0.00,WUHU216DAVISVP2,2013-11-02 02:05:00,
2013-11-01 22:06:00,47.8,43.2,28.89,West,280,18.0,18.0,84,0.00,,,0.00,WUHU216DAVISVP2,2013-11-02 02:06:00,
2013-11-01 22:07:00,47.8,43.2,28.89,WNW,295,6.0,18.0,84,0.00,,,0.00,WUHU216DAVISVP2,2013-11-02 02:07:00,
2013-11-01 22:08:00,47.8,43.2,28.89,West,280,10.0,18.0,84,0.00,,,0.00,WUHU216DAVISVP2,2013-11-02 02:08:00,
2013-11-01 22:10:00,47.7,43.4,28.89,WNW,282,10.0,18.0,85,0.00,,,0.00,WUHU216DAVISVP2,2013-11-02 02:10:00,
2013-11-01 22:11:00,47.7,43.4,28.89,WNW,295,10.0,18.0,85,0.00,,,0.00,WUHU216DAVISVP2,2013-11-02 02:11:00,
2013-11-01 22:12:00,47.7,43.4,28.89,West,280,11.0,18.0,85,0.00,,,0.00,WUHU216DAVISVP2,2013-11-02 02:12:00,
2013-11-01 22:13:00,47.7,43.4,28.90,WNW,283,12.0,18.0,85,0.00,,,0.00,WUHU216DAVISVP2,2013-11-02 02:13:00,
2013-11-01 22:16:00,47.6,43.3,28.90,West,275,6.0,18.0,85,0.00,,,0.00,WUHU216DAVISVP2,2013-11-02 02:16:00,
2013-11-01 22:18:00,47.6,43.3,28.90,WNW,292,9.0,18.0,85,0.00,,,0.00,WUHU216DAVISVP2,2013-11-02 02:18:00,
2013-11-01 22:21:00,47.5,43.5,28.90,West,280,11.0,18.0,86,0.00,,,0.00,WUHU216DAVISVP2,2013-11-02 02:21:00,
2013-11-01 22:23:00,47.5,43.5,28.90,West,278,5.0,18.0,86,0.00,,,0.00,WUHU216DAVISVP2,2013-11-02 02:23:00,
2013-11-01 22:26:00,47.4,43.4,28.90,West,265,5.0,15.0,86,0.00,,,0.00,WUHU216DAVISVP2,2013-11-02 02:26:00,
2013-11-01 22:28:00,47.2,43.5,28.90,West,278,7.0,15.0,87,0.00,,,0.00,WUHU216DAVISVP2,2013-11-02 02:28:00,
2013-11-01 22:29:00,47.2,43.5,28.90,West,272,11.0,15.0,87,0.00,,,0.00,WUHU216DAVISVP2,2013-11-02 02:29:00,
2013-11-01 22:31:00,47.0,43.6,28.90,WNW,299,13.0,18.0,88,0.00,,,0.00,WUHU216DAVISVP2,2013-11-02 02:31:00,
2013-11-01 22:33:00,46.9,43.8,28.90,WNW,289,10.0,18.0,89,0.00,,,0.00,WUHU216DAVISVP2,2013-11-02 02:33:00,
2013-11-01 22:34:00,46.8,43.7,28.90,WNW,296,8.0,18.0,89,0.00,,,0.00,WUHU216DAVISVP2,2013-11-02 02:34:00,
2013-11-01 22:37:00,46.6,43.8,28.90,WNW,287,11.0,18.0,90,0.00,,,0.00,WUHU216DAVISVP2,2013-11-02 02:37:00,
2013-11-01 22:38:00,46.6,43.8,28.90,West,269,11.0,18.0,90,0.00,,,0.00,WUHU216DAVISVP2,2013-11-02 02:38:00,
2013-11-01 22:39:00,46.6,43.8,28.90,West,276,9.0,19.0,90,0.00,,,0.00,WUHU216DAVISVP2,2013-11-02 02:39:00,
2013-11-01 22:42:00,46.5,44.0,28.91,WNW,300,12.0,19.0,91,0.00,,,0.00,WUHU216DAVISVP2,2013-11-02 02:42:00,
2013-11-01 22:43:00,46.4,43.9,28.91,WNW,289,12.0,19.0,91,0.00,,,0.00,WUHU216DAVISVP2,2013-11-02 02:43:00,
2013-11-01 22:44:00,46.4,43.9,28.91,WNW,286,10.0,19.0,91,0.00,,,0.00,WUHU216DAVISVP2,2013-11-02 02:44:00,
2013-11-01 22:45:00,46.4,43.9,28.90,WNW,282,7.0,19.0,91,0.00,,,0.00,WUHU216DAVISVP2,2013-11-02 02:45:00,
2013-11-01 22:46:00,46.4,43.9,28.90,WNW,301,9.0,19.0,91,0.00,,,0.00,WUHU216DAVISVP2,2013-11-02 02:46:00,
2013-11-01 22:47:00,46.3,43.8,28.91,WNW,291,8.0,19.0,91,0.00,,,0.00,WUHU216DAVISVP2,2013-11-02 02:47:00,
2013-11-01 22:48:00,46.3,43.8,28.91,WNW,299,10.0,19.0,91,0.00,,,0.00,WUHU216DAVISVP2,2013-11-02 02:48:00,
2013-11-01 22:49:00,46.3,43.8,28.91,WNW,301,8.0,19.0,91,0.00,,,0.00,WUHU216DAVISVP2,2013-11-02 02:49:00,
2013-11-01 22:50:00,46.3,43.8,28.91,WNW,302,7.0,19.0,91,0.00,,,0.00,WUHU216DAVISVP2,2013-11-02 02:50:00,
2013-11-01 22:51:00,46.3,43.8,28.91,WNW,298,8.0,19.0,91,0.00,,,0.00,WUHU216DAVISVP2,2013-11-02 02:51:00,
2013-11-01 22:52:00,46.3,43.8,28.91,WNW,294,8.0,19.0,91,0.00,,,0.00,WUHU216DAVISVP2,2013-11-02 02:52:00,
2013-11-01 22:53:00,46.3,43.8,28.91,WNW,285,11.0,19.0,91,0.00,,,0.00,WUHU216DAVISVP2,2013-11-02 02:53:00,
2013-11-01 22:54:00,46.3,44.1,28.91,WNW,299,6.0,19.0,92,0.00,,,0.00,WUHU216DAVISVP2,2013-11-02 02:54:00,
2013-11-01 22:55:00,46.3,44.1,28.91,West,280,5.0,19.0,92,0.00,,,0.00,WUHU216DAVISVP2,2013-11-02 02:55:00,
2013-11-01 22:56:00,46.2,44.0,28.91,WNW,285,8.0,19.0,92,0.00,,,0.00,WUHU216DAVISVP2,2013-11-02 02:56:00,
2013-11-01 22:58:00,46.2,44.0,28.91,West,273,6.0,16.0,92,0.00,,,0.00,WUHU216DAVISVP2,2013-11-02 02:58:00,
2013-11-01 22:59:00,46.2,44.0,28.91,West,272,7.0,16.0,92,0.00,,,0.00,WUHU216DAVISVP2,2013-11-02 02:59:00,
2013-11-01 23:01:00,46.2,44.0,28.91,WNW,291,7.0,16.0,92,0.00,,,0.00,WUHU216DAVISVP2,2013-11-02 03:01:00,
2013-11-01 23:03:00,46.2,44.0,28.91,WNW,294,6.0,14.0,92,0.00,,,0.00,WUHU216DAVISVP2,2013-11-02 03:03:00,
2013-11-01 23:04:00,46.1,43.9,28.91,WNW,296,8.0,14.0,92,0.00,,,0.00,WUHU216DAVISVP2,2013-11-02 03:04:00,
2013-11-01 23:06:00,46.1,43.6,28.91,WNW,287,9.0,14.0,91,0.00,,,0.00,WUHU216DAVISVP2,2013-11-02 03:06:00,
2013-11-01 23:07:00,46.1,43.6,28.91,WNW,297,6.0,12.0,91,0.00,,,0.00,WUHU216DAVISVP2,2013-11-02 03:07:00,
2013-11-01 23:08:00,46.1,43.6,28.91,WNW,300,9.0,12.0,91,0.00,,,0.00,WUHU216DAVISVP2,2013-11-02 03:08:00,
2013-11-01 23:09:00,46.0,43.5,28.91,West,273,9.0,12.0,91,0.00,,,0.00,WUHU216DAVISVP2,2013-11-02 03:09:00,
2013-11-01 23:10:00,46.0,43.5,28.91,West,273,8.0,12.0,91,0.00,,,0.00,WUHU216DAVISVP2,2013-11-02 03:10:00,
2013-11-01 23:11:00,46.0,43.5,28.91,WNW,284,10.0,12.0,91,0.00,,,0.00,WUHU216DAVISVP2,2013-11-02 03:11:00,
2013-11-01 23:12:00,46.0,43.5,28.91,WNW,293,6.0,12.0,91,0.00,,,0.00,WUHU216DAVISVP2,2013-11-02 03:12:00,
2013-11-01 23:13:00,46.0,43.5,28.91,West,269,6.0,13.0,91,0.00,,,0.00,WUHU216DAVISVP2,2013-11-02 03:13:00,
2013-11-01 23:14:00,46.0,43.5,28.91,WNW,285,8.0,13.0,91,0.00,,,0.00,WUHU216DAVISVP2,2013-11-02 03:14:00,
2013-11-01 23:15:00,46.0,43.5,28.91,NW,304,9.0,13.0,91,0.00,,,0.00,WUHU216DAVISVP2,2013-11-02 03:15:00,
2013-11-01 23:16:00,46.0,43.5,28.91,West,274,8.0,13.0,91,0.00,,,0.00,WUHU216DAVISVP2,2013-11-02 03:16:00,
2013-11-01 23:17:00,46.0,43.5,28.91,WNW,290,8.0,13.0,91,0.00,,,0.00,WUHU216DAVISVP2,2013-11-02 03:17:00,
2013-11-01 23:18:00,46.0,43.5,28.91,WNW,289,7.0,14.0,91,0.00,,,0.00,WUHU216DAVISVP2,2013-11-02 03:18:00,
2013-11-01 23:19:00,46.0,43.5,28.91,WNW,295,7.0,14.0,91,0.00,,,0.00,WUHU216DAVISVP2,2013-11-02 03:19:00,
2013-11-01 23:20:00,46.0,43.5,28.91,NW,310,7.0,14.0,91,0.00,,,0.00,WUHU216DAVISVP2,2013-11-02 03:20:00,
2013-11-01 23:21:00,46.0,43.5,28.91,WNW,285,13.0,14.0,91,0.00,,,0.00,WUHU216DAVISVP2,2013-11-02 03:21:00,
2013-11-01 23:22:00,46.0,43.5,28.91,NW,313,10.0,14.0,91,0.00,,,0.00,WUHU216DAVISVP2,2013-11-02 03:22:00,
2013-11-01 23:23:00,46.0,43.5,28.91,WNW,302,8.0,14.0,91,0.00,,,0.00,WUHU216DAVISVP2,2013-11-02 03:23:00,
2013-11-01 23:24:00,46.0,43.5,28.91,WNW,294,12.0,14.0,91,0.00,,,0.00,WUHU216DAVISVP2,2013-11-02 03:24:00,
2013-11-01 23:26:00,46.0,43.2,28.91,West,276,7.0,14.0,90,0.00,,,0.00,WUHU216DAVISVP2,2013-11-02 03:26:00,
2013-11-01 23:27:00,46.0,43.2,28.91,NW,313,9.0,14.0,90,0.00,,,0.00,WUHU216DAVISVP2,2013-11-02 03:27:00,
2013-11-01 23:29:00,46.1,43.3,28.91,West,268,11.0,14.0,90,0.00,,,0.00,WUHU216DAVISVP2,2013-11-02 03:29:00,
2013-11-01 23:30:00,46.0,43.2,28.91,NW,306,8.0,14.0,90,0.00,,,0.00,WUHU216DAVISVP2,2013-11-02 03:30:00,
2013-11-01 23:32:00,46.0,43.2,28.91,WNW,289,8.0,14.0,90,0.00,,,0.00,WUHU216DAVISVP2,2013-11-02 03:32:00,
2013-11-01 23:33:00,46.0,43.2,28.91,West,278,11.0,16.0,90,0.00,,,0.00,WUHU216DAVISVP2,2013-11-02 03:33:00,
2013-11-01 23:34:00,46.0,43.2,28.91,WNW,291,10.0,16.0,90,0.00,,,0.00,WUHU216DAVISVP2,2013-11-02 03:34:00,
2013-11-01 23:35:00,46.0,43.2,28.91,NW,312,10.0,16.0,90,0.00,,,0.00,WUHU216DAVISVP2,2013-11-02 03:35:00,
2013-11-01 23:37:00,46.0,43.2,28.91,WNW,297,7.0,16.0,90,0.00,,,0.00,WUHU216DAVISVP2,2013-11-02 03:37:00,
2013-11-01 23:39:00,46.0,43.2,28.91,WNW,289,6.0,16.0,90,0.00,,,0.00,WUHU216DAVISVP2,2013-11-02 03:39:00,
2013-11-01 23:40:00,46.0,43.2,28.91,NW,305,9.0,16.0,90,0.00,,,0.00,WUHU216DAVISVP2,2013-11-02 03:40:00,
2013-11-01 23:41:00,46.0,43.2,28.91,WNW,293,10.0,16.0,90,0.00,,,0.00,WUHU216DAVISVP2,2013-11-02 03:41:00,
2013-11-01 23:42:00,46.0,43.2,28.91,WNW,299,11.0,16.0,90,0.00,,,0.00,WUHU216DAVISVP2,2013-11-02 03:42:00,
2013-11-01 23:44:00,45.9,43.1,28.91,WNW,287,6.0,16.0,90,0.00,,,0.00,WUHU216DAVISVP2,2013-11-02 03:44:00,
2013-11-01 23:45:00,45.9,43.1,28.91,NW,312,9.0,16.0,90,0.00,,,0.00,WUHU216DAVISVP2,2013-11-02 03:45:00,
2013-11-01 23:46:00,45.9,43.1,28.91,WNW,283,8.0,16.0,90,0.00,,,0.00,WUHU216DAVISVP2,2013-11-02 03:46:00,
2013-11-01 23:47:00,45.9,43.1,28.91,WNW,290,14.0,16.0,90,0.00,,,0.00,WUHU216DAVISVP2,2013-11-02 03:47:00,
2013-11-01 23:49:00,45.9,43.4,28.91,NW,316,6.0,16.0,91,0.00,,,0.00,WUHU216DAVISVP2,2013-11-02 03:49:00,
2013-11-01 23:50:00,45.9,43.4,28.91,West,278,11.0,16.0,91,0.00,,,0.00,WUHU216DAVISVP2,2013-11-02 03:50:00,
2013-11-01 23:51:00,45.9,43.4,28.91,WNW,290,6.0,16.0,91,0.00,,,0.00,WUHU216DAVISVP2,2013-11-02 03:51:00,
2013-11-01 23:52:00,45.9,43.4,28.91,WNW,286,7.0,14.0,91,0.00,,,0.00,WUHU216DAVISVP2,2013-11-02 03:52:00,
2013-11-01 23:53:00,45.9,43.4,28.91,NW,312,6.0,14.0,91,0.00,,,0.00,WUHU216DAVISVP2,2013-11-02 03:53:00,
2013-11-01 23:54:00,45.9,43.4,28.91,NW,313,6.0,14.0,91,0.00,,,0.00,WUHU216DAVISVP2,2013-11-02 03:54:00,
2013-11-01 23:55:00,45.9,43.4,28.91,West,274,9.0,14.0,91,0.00,,,0.00,WUHU216DAVISVP2,2013-11-02 03:55:00,
2013-11-01 23:56:00,45.9,43.4,28.91,WNW,283,9.0,14.0,91,0.00,,,0.00,WUHU216DAVISVP2,2013-11-02 03:56:00,
2013-11-01 23:57:00,45.9,43.4,28.91,WNW,298,10.0,14.0,91,0.00,,,0.00,WUHU216DAVISVP2,2013-11-02 03:57:00,
2013-11-01 23:58:00,45.9,43.4,28.91,West,280,10.0,14.0,91,0.00,,,0.00,WUHU216DAVISVP2,2013-11-02 03:58:00,
2013-11-01 23:59:00,45.9,43.4,28.91,WNW,299,9.0,14.0,91,0.00,,,0.00,WUHU216DAVISVP2,2013-11-02 03:59:00,